GFSWCAN_prec_precacc24_225.txt.gz
Total_Precipitation_Accumulation
0.03 0.02 0.02 0.02 0.04 0.06 0.11 0.31 0.75 0.97 0.83 0.71 0.57 0.44 0.56 0.62 0.61 0.50 0.44 0.46 0.70 0.95 0.87 0.66 0.73 0.36 0.53 0.56 0.67 0.71 0.51 0.70 0.94 1.14 1.18 0.99 0.72 0.45 0.33 0.21 0.24 0.52 0.64 0.76 0.97 0.95 0.51 0.04 0.00 0.00 0.00 0.00 0.00 0.00
0.02 0.02 0.02 0.01 0.01 0.01 0.03 0.05 0.14 0.46 0.84 0.75 0.62 0.57 0.52 0.49 0.46 0.47 0.54 0.65 0.75 1.01 1.00 0.51 0.47 0.47 0.23 0.42 0.41 0.41 0.39 0.34 0.42 0.62 0.73 0.64 0.62 0.49 0.35 0.27 0.12 0.19 0.41 0.43 0.37 0.37 0.21 0.07 0.05 0.01 0.00 0.00 0.00 0.00
0.03 0.02 0.02 0.02 0.01 0.01 0.02 0.02 0.04 0.09 0.24 0.57 0.57 0.47 0.52 0.55 0.46 0.41 0.31 0.49 0.70 0.78 0.62 0.58 0.63 0.48 0.29 0.33 0.42 0.62 0.43 0.28 0.25 0.26 0.41 0.42 0.42 0.39 0.46 0.31 0.10 0.09 0.15 0.34 0.36 0.20 0.09 0.07 0.05 0.05 0.00 0.00 0.00 0.00
0.02 0.02 0.01 0.01 0.01 0.01 0.01 0.02 0.02 0.02 0.05 0.18 0.53 0.48 0.51 0.58 0.58 0.44 0.31 0.31 0.41 0.39 0.44 0.60 0.55 0.58 0.58 0.38 0.37 0.44 0.27 0.16 0.17 0.29 0.42 0.56 0.46 0.34 0.37 0.24 0.18 0.09 0.12 0.21 0.24 0.16 0.11 0.09 0.02 0.00 0.00 0.00 0.00 0.00
0.03 0.02 0.01 0.01 0.01 0.01 0.01 0.01 0.01 0.01 0.02 0.03 0.31 0.68 0.67 0.62 0.66 0.47 0.37 0.35 0.37 0.38 0.43 0.33 0.23 0.37 0.47 0.41 0.30 0.26 0.32 0.24 0.18 0.29 0.51 0.41 0.28 0.27 0.32 0.28 0.18 0.08 0.10 0.10 0.07 0.02 0.02 0.05 0.06 0.03 0.00 0.00 0.00 0.00
0.02 0.02 0.02 0.02 0.01 0.01 0.01 0.01 0.01 0.01 0.01 0.01 0.05 0.36 0.72 0.82 0.59 0.43 0.65 0.52 0.28 0.20 0.30 0.26 0.26 0.29 0.54 0.54 0.52 0.37 0.31 0.37 0.30 0.31 0.30 0.22 0.18 0.21 0.29 0.27 0.11 0.04 0.03 0.03 0.02 0.00 0.00 0.00 0.00 0.02 0.01 0.00 0.00 0.00
0.02 0.02 0.02 0.02 0.01 0.01 0.00 0.00 0.00 0.00 0.01 0.00 0.02 0.06 0.18 0.34 0.31 0.53 0.34 0.27 0.16 0.17 0.32 0.30 0.23 0.19 0.34 0.43 0.51 0.65 0.56 0.55 0.38 0.32 0.27 0.17 0.10 0.17 0.25 0.19 0.09 0.06 0.05 0.03 0.03 0.05 0.03 0.01 0.00 0.00 0.00 0.00 0.00 0.00
0.03 0.02 0.02 0.02 0.02 0.01 0.00 0.00 0.00 0.00 0.00 0.00 0.00 0.01 0.06 0.15 0.28 0.36 0.24 0.16 0.19 0.29 0.23 0.27 0.22 0.14 0.13 0.25 0.31 0.37 0.56 0.54 0.51 0.40 0.23 0.16 0.19 0.19 0.18 0.05 0.08 0.15 0.13 0.11 0.09 0.05 0.06 0.05 0.03 0.02 0.01 0.01 0.01 0.01
0.03 0.02 0.01 0.01 0.02 0.01 0.00 0.00 0.00 0.00 0.00 0.00 0.00 0.00 0.00 0.04 0.04 0.05 0.07 0.15 0.22 0.41 0.35 0.21 0.22 0.16 0.03 0.14 0.18 0.20 0.27 0.43 0.44 0.47 0.32 0.22 0.19 0.15 0.07 0.01 0.00 0.05 0.13 0.20 0.15 0.13 0.12 0.11 0.09 0.07 0.05 0.04 0.05 0.04
0.02 0.02 0.02 0.02 0.01 0.01 0.01 0.00 0.00 0.00 0.00 0.00 0.00 0.02 0.02 0.01 0.00 0.00 0.00 0.02 0.06 0.12 0.11 0.14 0.05 0.05 0.07 0.07 0.16 0.16 0.22 0.31 0.31 0.20 0.20 0.20 0.09 0.01 0.00 0.00 0.00 0.00 0.00 0.06 0.17 0.22 0.22 0.14 0.14 0.08 0.05 0.04 0.03 0.03
0.03 0.02 0.02 0.01 0.01 0.01 0.00 0.00 0.00 0.00 0.00 0.01 0.04 0.05 0.01 0.00 0.01 0.03 0.03 0.03 0.01 0.04 0.03 0.03 0.02 0.02 0.01 0.05 0.11 0.09 0.11 0.13 0.15 0.09 0.13 0.14 0.06 0.01 0.00 0.00 0.00 0.01 0.00 0.00 0.01 0.03 0.05 0.06 0.04 0.06 0.03 0.01 0.00 0.00
0.03 0.02 0.02 0.01 0.01 0.01 0.00 0.00 0.00 0.00 0.00 0.00 0.01 0.01 0.00 0.02 0.05 0.05 0.01 0.00 0.01 0.01 0.04 0.01 0.01 0.01 0.01 0.02 0.03 0.03 0.08 0.15 0.09 0.04 0.11 0.09 0.03 0.02 0.01 0.00 0.01 0.02 0.02 0.01 0.01 0.00 0.01 0.01 0.01 0.01 0.02 0.02 0.01 0.01
0.03 0.02 0.02 0.01 0.01 0.00 0.00 0.00 0.00 0.00 0.00 0.00 0.03 0.01 0.01 0.02 0.04 0.03 0.07 0.05 0.03 0.01 0.02 0.01 0.03 0.02 0.02 0.03 0.02 0.03 0.06 0.06 0.04 0.07 0.08 0.06 0.02 0.05 0.06 0.08 0.01 0.00 0.01 0.02 0.03 0.01 0.00 0.00 0.00 0.00 0.01 0.01 0.01 0.01
0.02 0.01 0.01 0.01 0.01 0.00 0.00 0.00 0.00 0.00 0.00 0.02 0.03 0.01 0.01 0.04 0.02 0.03 0.07 0.12 0.04 0.00 0.00 0.01 0.03 0.04 0.04 0.05 0.01 0.02 0.01 0.03 0.06 0.06 0.12 0.05 0.07 0.07 0.11 0.15 0.08 0.02 0.02 0.02 0.02 0.02 0.01 0.01 0.01 0.01 0.01 0.01 0.01 0.01
0.02 0.00 0.01 0.01 0.01 0.00 0.00 0.00 0.00 0.00 0.00 0.00 0.00 0.02 0.01 0.01 0.02 0.02 0.01 0.01 0.01 0.01 0.02 0.03 0.04 0.02 0.02 0.01 0.01 0.01 0.02 0.02 0.04 0.07 0.06 0.02 0.03 0.04 0.07 0.13 0.10 0.12 0.11 0.08 0.06 0.04 0.03 0.02 0.01 0.01 0.01 0.00 0.01 0.01
0.01 0.00 0.01 0.01 0.00 0.00 0.00 0.00 0.00 0.00 0.00 0.00 0.00 0.02 0.06 0.20 0.09 0.06 0.06 0.05 0.05 0.05 0.05 0.04 0.04 0.02 0.02 0.01 0.02 0.01 0.02 0.03 0.05 0.07 0.05 0.02 0.01 0.02 0.02 0.04 0.04 0.06 0.09 0.09 0.09 0.06 0.03 0.02 0.02 0.02 0.00 0.00 0.00 0.01
0.01 0.03 0.01 0.01 0.02 0.02 0.00 0.00 0.00 0.00 0.00 0.00 0.01 0.01 0.22 0.32 0.10 0.11 0.08 0.06 0.07 0.11 0.09 0.06 0.03 0.01 0.01 0.03 0.04 0.06 0.12 0.12 0.07 0.04 0.01 0.00 0.00 0.03 0.01 0.01 0.01 0.01 0.00 0.01 0.03 0.06 0.03 0.01 0.00 0.00 0.00 0.00 0.00 0.01
0.02 0.01 0.00 0.02 0.03 0.00 0.00 0.00 0.00 0.00 0.00 0.01 0.06 0.02 0.02 0.04 0.21 0.17 0.03 0.04 0.09 0.15 0.10 0.08 0.06 0.04 0.03 0.08 0.17 0.16 0.08 0.05 0.04 0.04 0.02 0.01 0.00 0.02 0.01 0.03 0.02 0.02 0.01 0.04 0.02 0.02 0.01 0.01 0.00 0.00 0.00 0.00 0.00 0.01
0.01 0.00 0.00 0.00 0.03 0.03 0.01 0.00 0.00 0.01 0.01 0.01 0.01 0.00 0.01 0.03 0.02 0.01 0.00 0.00 0.05 0.12 0.19 0.13 0.05 0.08 0.16 0.27 0.24 0.09 0.04 0.02 0.04 0.07 0.07 0.05 0.02 0.01 0.01 0.11 0.08 0.07 0.05 0.11 0.05 0.06 0.02 0.03 0.01 0.01 0.01 0.00 0.01 0.01
0.00 0.00 0.00 0.00 0.04 0.11 0.14 0.09 0.01 0.02 0.03 0.01 0.01 0.01 0.02 0.08 0.03 0.01 0.00 0.00 0.03 0.08 0.12 0.11 0.13 0.21 0.27 0.23 0.26 0.14 0.04 0.00 0.01 0.04 0.07 0.09 0.06 0.01 0.01 0.04 0.04 0.04 0.04 0.05 0.04 0.06 0.02 0.01 0.00 0.01 0.01 0.01 0.01 0.01
0.00 0.00 0.00 0.02 0.02 0.06 0.07 0.08 0.08 0.02 0.01 0.01 0.01 0.01 0.04 0.02 0.04 0.06 0.05 0.02 0.05 0.11 0.17 0.18 0.18 0.12 0.16 0.21 0.16 0.10 0.05 0.03 0.01 0.01 0.01 0.03 0.02 0.01 0.01 0.01 0.01 0.01 0.02 0.01 0.02 0.02 0.01 0.01 0.00 0.00 0.01 0.01 0.01 0.01
0.01 0.00 0.02 0.03 0.01 0.01 0.02 0.02 0.03 0.06 0.03 0.02 0.01 0.01 0.04 0.05 0.05 0.09 0.11 0.16 0.23 0.15 0.11 0.15 0.16 0.15 0.15 0.18 0.13 0.09 0.09 0.07 0.08 0.03 0.00 0.00 0.02 0.01 0.02 0.03 0.02 0.02 0.01 0.01 0.01 0.02 0.02 0.01 0.01 0.00 0.01 0.01 0.01 0.01
0.01 0.00 0.01 0.04 0.06 0.03 0.01 0.02 0.08 0.06 0.06 0.06 0.06 0.05 0.04 0.07 0.08 0.13 0.24 0.19 0.20 0.15 0.10 0.10 0.17 0.26 0.25 0.24 0.18 0.11 0.10 0.08 0.12 0.12 0.03 0.00 0.01 0.01 0.01 0.01 0.02 0.02 0.03 0.04 0.02 0.01 0.01 0.01 0.01 0.01 0.01 0.01 0.01 0.01
0.02 0.01 0.01 0.01 0.01 0.01 0.01 0.02 0.05 0.09 0.10 0.14 0.15 0.09 0.16 0.13 0.12 0.25 0.28 0.24 0.17 0.06 0.06 0.11 0.10 0.17 0.31 0.30 0.30 0.28 0.21 0.16 0.19 0.20 0.13 0.09 0.03 0.02 0.01 0.02 0.03 0.04 0.05 0.04 0.03 0.02 0.02 0.01 0.01 0.02 0.01 0.01 0.01 0.02
0.04 0.04 0.05 0.03 0.04 0.04 0.05 0.05 0.06 0.07 0.09 0.13 0.16 0.21 0.35 0.26 0.46 0.35 0.25 0.20 0.10 0.09 0.10 0.13 0.20 0.20 0.18 0.21 0.27 0.29 0.30 0.32 0.37 0.38 0.34 0.22 0.15 0.11 0.11 0.10 0.07 0.07 0.05 0.03 0.05 0.04 0.04 0.02 0.01 0.01 0.01 0.01 0.02 0.03
0.00 0.01 0.02 0.01 0.01 0.02 0.02 0.03 0.05 0.02 0.02 0.03 0.05 0.05 0.04 0.05 0.14 0.23 0.19 0.20 0.15 0.14 0.16 0.18 0.21 0.19 0.22 0.25 0.23 0.23 0.25 0.29 0.37 0.28 0.34 0.33 0.32 0.24 0.12 0.08 0.08 0.12 0.10 0.05 0.03 0.03 0.03 0.03 0.01 0.01 0.01 0.02 0.03 0.04
0.01 0.01 0.00 0.00 0.00 0.00 0.00 0.01 0.00 0.01 0.02 0.03 0.03 0.02 0.02 0.05 0.09 0.10 0.10 0.10 0.12 0.13 0.14 0.16 0.19 0.21 0.24 0.25 0.26 0.28 0.26 0.24 0.24 0.31 0.37 0.35 0.34 0.39 0.30 0.24 0.20 0.14 0.11 0.07 0.04 0.04 0.03 0.02 0.02 0.02 0.02 0.02 0.03 0.03
0.01 0.00 0.00 0.00 0.00 0.00 0.00 0.01 0.01 0.02 0.02 0.02 0.02 0.03 0.04 0.06 0.09 0.08 0.08 0.09 0.08 0.06 0.05 0.05 0.06 0.09 0.12 0.15 0.18 0.19 0.20 0.25 0.29 0.29 0.26 0.27 0.34 0.42 0.36 0.29 0.25 0.25 0.23 0.20 0.14 0.10 0.06 0.04 0.03 0.02 0.02 0.03 0.03 0.02
0.00 0.00 0.00 0.00 0.00 0.01 0.02 0.01 0.02 0.01 0.00 0.01 0.03 0.05 0.07 0.05 0.06 0.07 0.06 0.05 0.05 0.06 0.05 0.04 0.02 0.02 0.03 0.03 0.03 0.06 0.10 0.12 0.16 0.18 0.18 0.21 0.22 0.27 0.30 0.28 0.22 0.20 0.23 0.24 0.20 0.17 0.13 0.07 0.03 0.02 0.02 0.02 0.02 0.02
0.00 0.00 0.00 0.00 0.00 0.02 0.02 0.01 0.03 0.00 0.00 0.00 0.02 0.02 0.03 0.05 0.04 0.03 0.02 0.02 0.04 0.04 0.02 0.01 0.01 0.00 0.00 0.01 0.01 0.00 0.01 0.02 0.03 0.06 0.08 0.11 0.16 0.17 0.16 0.18 0.18 0.17 0.16 0.17 0.18 0.16 0.14 0.12 0.10 0.08 0.05 0.03 0.02 0.02
0.00 0.00 0.00 0.00 0.02 0.05 0.01 0.00 0.00 0.00 0.00 0.00 0.01 0.02 0.05 0.04 0.03 0.01 0.01 0.01 0.01 0.01 0.01 0.01 0.01 0.00 0.00 0.00 0.00 0.00 0.02 0.01 0.00 0.00 0.01 0.02 0.03 0.05 0.04 0.06 0.08 0.09 0.10 0.09 0.09 0.10 0.10 0.09 0.10 0.10 0.09 0.08 0.05 0.03
0.00 0.00 0.00 0.00 0.01 0.01 0.00 0.00 0.00 0.00 0.01 0.01 0.02 0.01 0.02 0.02 0.04 0.04 0.01 0.01 0.01 0.01 0.02 0.02 0.02 0.01 0.00 0.00 0.00 0.00 0.00 0.01 0.01 0.01 0.01 0.01 0.02 0.01 0.01 0.01 0.01 0.01 0.01 0.02 0.03 0.04 0.04 0.05 0.06 0.07 0.07 0.07 0.07 0.07
0.00 0.00 0.00 0.00 0.00 0.00 0.00 0.00 0.00 0.00 0.01 0.01 0.04 0.02 0.02 0.01 0.02 0.05 0.02 0.01 0.02 0.02 0.01 0.01 0.01 0.00 0.00 0.00 0.00 0.00 0.01 0.01 0.01 0.01 0.01 0.01 0.01 0.01 0.01 0.01 0.01 0.01 0.00 0.00 0.01 0.01 0.01 0.02 0.02 0.03 0.03 0.03 0.05 0.05

GFSWCAN_prec_precacc24_228.txt.gz
Total_Precipitation_Accumulation
0.04 0.03 0.03 0.02 0.03 0.05 0.09 0.26 0.68 0.89 0.72 0.59 0.44 0.29 0.40 0.48 0.57 0.53 0.46 0.41 0.68 0.88 0.62 0.55 0.67 0.34 0.55 0.61 0.73 0.74 0.61 0.93 1.16 1.33 1.29 1.04 0.72 0.45 0.33 0.21 0.24 0.52 0.65 0.78 1.01 1.02 0.57 0.05 0.00 0.01 0.02 0.00 0.00 0.00
0.04 0.04 0.03 0.02 0.02 0.02 0.03 0.06 0.14 0.47 0.84 0.74 0.60 0.53 0.47 0.45 0.49 0.60 0.62 0.63 0.78 1.12 0.97 0.48 0.47 0.47 0.25 0.45 0.45 0.47 0.41 0.37 0.46 0.66 0.75 0.64 0.62 0.49 0.35 0.27 0.12 0.19 0.42 0.43 0.38 0.40 0.23 0.09 0.07 0.01 0.00 0.00 0.00 0.00
0.04 0.04 0.03 0.02 0.01 0.01 0.02 0.02 0.05 0.10 0.25 0.57 0.57 0.47 0.52 0.56 0.51 0.56 0.45 0.55 0.78 0.85 0.61 0.59 0.65 0.49 0.30 0.35 0.44 0.67 0.45 0.29 0.26 0.26 0.42 0.42 0.42 0.39 0.46 0.31 0.10 0.09 0.15 0.34 0.37 0.20 0.10 0.08 0.08 0.10 0.07 0.02 0.00 0.00
0.03 0.03 0.02 0.02 0.02 0.02 0.02 0.03 0.03 0.03 0.05 0.18 0.54 0.49 0.52 0.62 0.64 0.51 0.38 0.34 0.43 0.41 0.44 0.61 0.59 0.61 0.60 0.40 0.38 0.45 0.27 0.16 0.18 0.29 0.44 0.58 0.46 0.34 0.37 0.24 0.18 0.09 0.12 0.23 0.29 0.17 0.11 0.09 0.03 0.01 0.03 0.07 0.05 0.02
0.04 0.03 0.02 0.02 0.02 0.02 0.02 0.02 0.01 0.02 0.02 0.03 0.31 0.68 0.69 0.69 0.72 0.50 0.39 0.36 0.37 0.39 0.44 0.33 0.24 0.40 0.50 0.41 0.31 0.26 0.32 0.25 0.20 0.32 0.55 0.43 0.28 0.27 0.32 0.29 0.19 0.08 0.10 0.10 0.09 0.03 0.02 0.05 0.06 0.04 0.03 0.04 0.08 0.06
0.03 0.03 0.03 0.03 0.02 0.02 0.01 0.01 0.01 0.01 0.02 0.01 0.05 0.36 0.73 0.90 0.68 0.47 0.65 0.52 0.28 0.20 0.30 0.26 0.26 0.30 0.54 0.54 0.52 0.37 0.31 0.37 0.30 0.31 0.31 0.22 0.18 0.21 0.30 0.27 0.11 0.04 0.03 0.03 0.02 0.00 0.00 0.00 0.00 0.02 0.05 0.03 0.05 0.08
0.03 0.03 0.03 0.03 0.02 0.02 0.01 0.01 0.01 0.00 0.01 0.00 0.02 0.06 0.18 0.39 0.41 0.55 0.34 0.27 0.16 0.17 0.32 0.30 0.23 0.19 0.34 0.43 0.51 0.65 0.56 0.55 0.38 0.33 0.28 0.17 0.10 0.17 0.25 0.19 0.09 0.06 0.05 0.03 0.03 0.05 0.03 0.01 0.00 0.00 0.00 0.02 0.06 0.08
0.03 0.03 0.03 0.03 0.02 0.01 0.01 0.01 0.00 0.00 0.00 0.00 0.00 0.01 0.06 0.16 0.30 0.39 0.24 0.17 0.20 0.32 0.25 0.28 0.22 0.14 0.13 0.26 0.31 0.37 0.58 0.58 0.56 0.42 0.25 0.16 0.19 0.21 0.20 0.05 0.08 0.15 0.13 0.11 0.09 0.05 0.06 0.05 0.03 0.02 0.01 0.01 0.02 0.03
0.03 0.03 0.03 0.02 0.02 0.02 0.01 0.01 0.00 0.00 0.00 0.00 0.00 0.00 0.00 0.04 0.04 0.05 0.07 0.16 0.25 0.50 0.45 0.25 0.23 0.16 0.03 0.14 0.19 0.22 0.30 0.48 0.46 0.49 0.32 0.23 0.21 0.17 0.08 0.01 0.00 0.05 0.13 0.20 0.15 0.14 0.13 0.11 0.10 0.07 0.05 0.04 0.05 0.04
0.03 0.03 0.03 0.02 0.02 0.01 0.01 0.01 0.00 0.00 0.00 0.00 0.00 0.02 0.02 0.01 0.00 0.00 0.01 0.03 0.10 0.23 0.19 0.17 0.07 0.08 0.09 0.09 0.18 0.18 0.25 0.32 0.34 0.21 0.22 0.24 0.10 0.01 0.00 0.00 0.00 0.00 0.01 0.07 0.17 0.23 0.22 0.14 0.14 0.09 0.06 0.05 0.04 0.05
0.03 0.03 0.03 0.02 0.01 0.01 0.01 0.00 0.01 0.00 0.00 0.01 0.04 0.05 0.01 0.00 0.01 0.03 0.03 0.04 0.02 0.05 0.04 0.03 0.02 0.02 0.02 0.08 0.16 0.13 0.12 0.15 0.17 0.10 0.15 0.16 0.06 0.01 0.00 0.00 0.00 0.01 0.00 0.00 0.01 0.03 0.06 0.06 0.04 0.06 0.05 0.03 0.02 0.03
0.03 0.03 0.03 0.02 0.02 0.01 0.00 0.01 0.01 0.00 0.00 0.00 0.01 0.02 0.01 0.02 0.06 0.07 0.01 0.00 0.02 0.02 0.04 0.01 0.01 0.01 0.01 0.02 0.07 0.07 0.10 0.17 0.10 0.05 0.12 0.10 0.03 0.02 0.01 0.00 0.01 0.02 0.02 0.01 0.01 0.01 0.01 0.01 0.02 0.07 0.06 0.07 0.04 0.04
0.04 0.03 0.03 0.02 0.01 0.01 0.01 0.01 0.00 0.00 0.00 0.01 0.05 0.04 0.01 0.03 0.04 0.04 0.09 0.09 0.03 0.01 0.02 0.01 0.02 0.01 0.02 0.04 0.06 0.04 0.09 0.06 0.03 0.08 0.09 0.06 0.02 0.05 0.06 0.08 0.01 0.01 0.01 0.05 0.06 0.04 0.05 0.03 0.03 0.11 0.08 0.10 0.09 0.06
0.03 0.02 0.02 0.01 0.01 0.01 0.01 0.00 0.00 0.00 0.00 0.03 0.05 0.02 0.02 0.04 0.02 0.03 0.07 0.12 0.04 0.00 0.00 0.01 0.03 0.03 0.04 0.10 0.03 0.02 0.01 0.02 0.07 0.06 0.13 0.05 0.08 0.05 0.11 0.22 0.18 0.09 0.03 0.08 0.18 0.12 0.11 0.10 0.06 0.11 0.06 0.03 0.04 0.02
0.02 0.01 0.01 0.01 0.01 0.00 0.00 0.00 0.00 0.00 0.01 0.01 0.01 0.02 0.01 0.01 0.02 0.02 0.01 0.01 0.01 0.01 0.02 0.03 0.04 0.02 0.01 0.02 0.01 0.01 0.01 0.01 0.04 0.10 0.07 0.02 0.05 0.04 0.11 0.21 0.29 0.39 0.28 0.20 0.18 0.19 0.16 0.16 0.13 0.13 0.05 0.01 0.01 0.01
0.02 0.01 0.01 0.01 0.00 0.00 0.00 0.00 0.00 0.00 0.00 0.00 0.01 0.02 0.06 0.20 0.09 0.07 0.07 0.05 0.05 0.05 0.06 0.05 0.04 0.02 0.01 0.01 0.01 0.02 0.04 0.07 0.07 0.10 0.06 0.03 0.03 0.04 0.05 0.10 0.12 0.20 0.29 0.30 0.25 0.23 0.24 0.16 0.11 0.09 0.04 0.01 0.01 0.01
0.02 0.03 0.01 0.00 0.01 0.00 0.00 0.00 0.00 0.00 0.00 0.01 0.01 0.01 0.22 0.32 0.11 0.12 0.09 0.06 0.08 0.12 0.09 0.06 0.04 0.02 0.02 0.03 0.06 0.08 0.16 0.14 0.07 0.06 0.03 0.03 0.06 0.05 0.02 0.02 0.03 0.03 0.08 0.15 0.19 0.23 0.23 0.19 0.12 0.05 0.02 0.00 0.00 0.00
0.02 0.01 0.00 0.01 0.02 0.00 0.00 0.00 0.00 0.00 0.00 0.01 0.06 0.02 0.02 0.04 0.21 0.20 0.04 0.04 0.09 0.15 0.11 0.10 0.08 0.05 0.04 0.09 0.19 0.21 0.10 0.06 0.06 0.07 0.05 0.03 0.02 0.05 0.01 0.03 0.03 0.04 0.03 0.08 0.11 0.13 0.10 0.07 0.03 0.01 0.00 0.00 0.00 0.00
0.01 0.01 0.00 0.00 0.03 0.02 0.00 0.00 0.00 0.01 0.01 0.01 0.01 0.00 0.01 0.04 0.03 0.02 0.00 0.00 0.05 0.12 0.20 0.15 0.06 0.09 0.16 0.28 0.25 0.10 0.06 0.05 0.05 0.10 0.10 0.07 0.03 0.02 0.04 0.14 0.11 0.11 0.12 0.16 0.09 0.10 0.09 0.07 0.03 0.02 0.01 0.00 0.01 0.01
0.00 0.00 0.00 0.00 0.01 0.03 0.05 0.04 0.01 0.01 0.03 0.01 0.01 0.01 0.02 0.08 0.06 0.02 0.00 0.00 0.03 0.07 0.09 0.12 0.16 0.23 0.29 0.24 0.28 0.16 0.08 0.04 0.04 0.05 0.08 0.13 0.14 0.09 0.05 0.18 0.20 0.17 0.17 0.19 0.15 0.14 0.14 0.10 0.05 0.01 0.00 0.01 0.01 0.01
0.00 0.00 0.00 0.02 0.01 0.02 0.02 0.04 0.05 0.02 0.01 0.01 0.01 0.01 0.04 0.02 0.07 0.07 0.05 0.02 0.04 0.08 0.16 0.18 0.19 0.16 0.21 0.24 0.18 0.13 0.09 0.06 0.04 0.05 0.03 0.05 0.05 0.02 0.02 0.03 0.04 0.03 0.03 0.04 0.06 0.10 0.09 0.03 0.00 0.00 0.01 0.01 0.01 0.01
0.00 0.00 0.01 0.01 0.01 0.00 0.01 0.01 0.03 0.05 0.03 0.02 0.01 0.01 0.04 0.05 0.05 0.09 0.11 0.15 0.23 0.15 0.12 0.15 0.17 0.16 0.16 0.20 0.15 0.11 0.12 0.10 0.11 0.05 0.02 0.01 0.01 0.02 0.02 0.02 0.02 0.02 0.01 0.01 0.01 0.02 0.03 0.01 0.01 0.00 0.01 0.01 0.01 0.01
0.00 0.00 0.00 0.02 0.02 0.01 0.00 0.01 0.04 0.04 0.04 0.04 0.05 0.04 0.05 0.08 0.09 0.13 0.24 0.19 0.20 0.15 0.10 0.10 0.18 0.27 0.26 0.26 0.20 0.12 0.11 0.11 0.15 0.16 0.07 0.04 0.02 0.01 0.02 0.01 0.02 0.02 0.03 0.03 0.01 0.01 0.01 0.01 0.01 0.01 0.01 0.01 0.01 0.02
0.01 0.01 0.01 0.00 0.00 0.00 0.00 0.01 0.03 0.07 0.07 0.11 0.13 0.08 0.15 0.13 0.11 0.23 0.26 0.22 0.16 0.05 0.05 0.09 0.09 0.16 0.28 0.27 0.29 0.28 0.24 0.20 0.21 0.22 0.16 0.12 0.06 0.04 0.02 0.02 0.03 0.03 0.03 0.03 0.03 0.03 0.02 0.01 0.01 0.02 0.01 0.01 0.02 0.02
0.02 0.01 0.02 0.01 0.02 0.01 0.01 0.02 0.04 0.04 0.03 0.03 0.05 0.13 0.25 0.18 0.31 0.24 0.18 0.18 0.09 0.07 0.07 0.07 0.13 0.14 0.14 0.16 0.22 0.29 0.34 0.38 0.43 0.44 0.39 0.26 0.18 0.14 0.14 0.12 0.08 0.06 0.05 0.03 0.05 0.04 0.04 0.03 0.01 0.01 0.01 0.01 0.02 0.03
0.00 0.01 0.01 0.00 0.00 0.00 0.01 0.02 0.03 0.01 0.01 0.01 0.03 0.03 0.03 0.04 0.07 0.11 0.10 0.13 0.10 0.09 0.09 0.10 0.12 0.12 0.14 0.17 0.16 0.18 0.24 0.32 0.42 0.35 0.45 0.43 0.39 0.30 0.17 0.14 0.13 0.14 0.12 0.05 0.02 0.03 0.03 0.03 0.01 0.01 0.01 0.02 0.03 0.03
0.01 0.01 0.00 0.00 0.00 0.00 0.00 0.00 0.00 0.00 0.01 0.01 0.02 0.01 0.02 0.04 0.08 0.07 0.06 0.05 0.07 0.08 0.08 0.09 0.11 0.13 0.16 0.18 0.19 0.21 0.22 0.23 0.25 0.34 0.43 0.43 0.43 0.46 0.36 0.30 0.24 0.17 0.13 0.09 0.05 0.04 0.03 0.02 0.02 0.01 0.02 0.02 0.02 0.03
0.01 0.00 0.00 0.00 0.00 0.00 0.00 0.00 0.00 0.01 0.02 0.01 0.01 0.02 0.03 0.05 0.08 0.05 0.04 0.06 0.06 0.05 0.03 0.03 0.03 0.06 0.09 0.12 0.14 0.16 0.17 0.23 0.26 0.26 0.26 0.28 0.36 0.45 0.41 0.32 0.28 0.28 0.27 0.24 0.17 0.12 0.06 0.03 0.03 0.02 0.02 0.02 0.03 0.02
0.01 0.00 0.00 0.00 0.00 0.00 0.01 0.01 0.01 0.01 0.00 0.00 0.02 0.04 0.05 0.04 0.04 0.04 0.04 0.04 0.04 0.05 0.04 0.03 0.02 0.01 0.03 0.02 0.02 0.05 0.07 0.10 0.15 0.16 0.16 0.20 0.22 0.27 0.31 0.29 0.23 0.21 0.25 0.28 0.27 0.23 0.16 0.08 0.03 0.02 0.02 0.02 0.02 0.02
0.01 0.00 0.00 0.00 0.00 0.01 0.02 0.01 0.03 0.00 0.00 0.00 0.01 0.01 0.02 0.04 0.03 0.02 0.01 0.02 0.04 0.04 0.01 0.01 0.01 0.00 0.00 0.01 0.01 0.00 0.01 0.01 0.02 0.05 0.07 0.11 0.16 0.18 0.17 0.18 0.19 0.18 0.18 0.20 0.23 0.25 0.23 0.20 0.16 0.11 0.06 0.04 0.02 0.02
0.00 0.00 0.00 0.00 0.02 0.04 0.01 0.00 0.00 0.00 0.00 0.00 0.01 0.02 0.04 0.04 0.02 0.01 0.01 0.01 0.01 0.01 0.01 0.01 0.01 0.00 0.00 0.00 0.00 0.00 0.02 0.01 0.00 0.00 0.01 0.02 0.03 0.05 0.04 0.06 0.08 0.09 0.10 0.12 0.14 0.17 0.20 0.19 0.16 0.12 0.10 0.09 0.07 0.04
0.01 0.00 0.00 0.00 0.02 0.01 0.00 0.00 0.00 0.00 0.01 0.01 0.02 0.01 0.01 0.01 0.03 0.04 0.01 0.01 0.01 0.01 0.02 0.02 0.02 0.01 0.00 0.00 0.00 0.00 0.00 0.01 0.01 0.01 0.01 0.01 0.01 0.01 0.01 0.01 0.01 0.01 0.01 0.02 0.05 0.08 0.10 0.11 0.12 0.11 0.10 0.09 0.10 0.10
0.00 0.00 0.00 0.00 0.00 0.00 0.00 0.00 0.00 0.00 0.01 0.01 0.03 0.02 0.01 0.01 0.02 0.05 0.02 0.01 0.02 0.02 0.01 0.01 0.01 0.00 0.00 0.00 0.00 0.00 0.01 0.01 0.01 0.01 0.01 0.00 0.01 0.00 0.00 0.01 0.01 0.01 0.00 0.00 0.01 0.01 0.03 0.05 0.05 0.05 0.05 0.05 0.06 0.07

GFSWCAN_prec_precacc24_231.txt.gz
Total_Precipitation_Accumulation
0.04 0.04 0.03 0.04 0.04 0.04 0.05 0.11 0.37 0.53 0.39 0.31 0.24 0.17 0.31 0.43 0.53 0.53 0.48 0.31 0.64 1.00 0.53 0.45 0.57 0.31 0.51 0.65 0.80 0.65 0.61 0.97 1.26 1.45 1.32 1.06 0.72 0.44 0.33 0.21 0.24 0.52 0.65 0.78 1.02 1.04 0.59 0.05 0.00 0.01 0.03 0.01 0.00 0.00
0.04 0.04 0.05 0.04 0.03 0.03 0.04 0.04 0.06 0.29 0.51 0.34 0.21 0.20 0.21 0.30 0.40 0.59 0.69 0.57 0.63 1.24 0.89 0.34 0.36 0.39 0.19 0.43 0.52 0.53 0.42 0.33 0.43 0.66 0.76 0.64 0.62 0.49 0.35 0.27 0.12 0.19 0.42 0.43 0.38 0.40 0.23 0.09 0.07 0.02 0.00 0.00 0.00 0.00
0.04 0.04 0.04 0.04 0.02 0.03 0.03 0.03 0.05 0.07 0.19 0.45 0.32 0.13 0.19 0.25 0.34 0.52 0.53 0.60 0.73 0.87 0.44 0.40 0.46 0.39 0.22 0.26 0.38 0.69 0.39 0.23 0.23 0.24 0.41 0.42 0.42 0.39 0.46 0.31 0.10 0.09 0.15 0.34 0.37 0.20 0.10 0.08 0.08 0.10 0.07 0.02 0.00 0.00
0.04 0.04 0.04 0.03 0.03 0.03 0.03 0.04 0.04 0.03 0.05 0.16 0.48 0.37 0.32 0.35 0.49 0.47 0.44 0.45 0.56 0.45 0.31 0.38 0.47 0.52 0.55 0.37 0.39 0.55 0.33 0.17 0.18 0.30 0.48 0.63 0.47 0.34 0.37 0.24 0.18 0.09 0.12 0.23 0.29 0.17 0.11 0.09 0.03 0.01 0.03 0.07 0.05 0.02
0.05 0.04 0.03 0.03 0.03 0.03 0.03 0.03 0.02 0.02 0.03 0.04 0.31 0.67 0.65 0.60 0.64 0.47 0.40 0.46 0.50 0.42 0.38 0.26 0.22 0.40 0.52 0.45 0.36 0.32 0.37 0.27 0.22 0.38 0.63 0.47 0.29 0.28 0.32 0.29 0.19 0.08 0.10 0.10 0.09 0.03 0.02 0.05 0.06 0.04 0.03 0.04 0.08 0.06
0.03 0.03 0.03 0.03 0.03 0.04 0.02 0.02 0.02 0.02 0.02 0.02 0.05 0.36 0.73 0.89 0.69 0.54 0.72 0.52 0.29 0.20 0.29 0.23 0.24 0.30 0.55 0.57 0.58 0.45 0.39 0.41 0.33 0.34 0.33 0.23 0.18 0.22 0.31 0.27 0.11 0.04 0.03 0.03 0.02 0.00 0.00 0.00 0.00 0.02 0.05 0.03 0.05 0.08
0.04 0.04 0.04 0.04 0.04 0.03 0.02 0.02 0.02 0.01 0.01 0.01 0.02 0.06 0.18 0.39 0.45 0.69 0.42 0.28 0.18 0.19 0.34 0.29 0.22 0.19 0.34 0.43 0.52 0.67 0.59 0.58 0.40 0.35 0.29 0.17 0.10 0.18 0.26 0.20 0.09 0.06 0.05 0.03 0.03 0.05 0.03 0.01 0.00 0.00 0.00 0.02 0.06 0.08
0.04 0.03 0.03 0.04 0.04 0.03 0.01 0.02 0.01 0.00 0.00 0.00 0.00 0.01 0.06 0.16 0.31 0.44 0.29 0.19 0.23 0.42 0.29 0.31 0.21 0.14 0.13 0.26 0.31 0.37 0.58 0.58 0.56 0.43 0.25 0.16 0.19 0.22 0.20 0.05 0.08 0.15 0.13 0.11 0.09 0.05 0.06 0.05 0.03 0.02 0.01 0.01 0.02 0.03
0.03 0.03 0.03 0.03 0.04 0.02 0.02 0.01 0.01 0.00 0.00 0.00 0.00 0.00 0.00 0.04 0.04 0.05 0.07 0.16 0.26 0.58 0.51 0.27 0.24 0.17 0.04 0.15 0.19 0.23 0.32 0.51 0.47 0.51 0.32 0.23 0.21 0.19 0.08 0.01 0.00 0.05 0.13 0.20 0.15 0.14 0.13 0.11 0.10 0.07 0.05 0.05 0.07 0.05
0.03 0.04 0.04 0.04 0.04 0.02 0.01 0.01 0.00 0.01 0.00 0.00 0.00 0.02 0.03 0.01 0.00 0.00 0.01 0.04 0.14 0.31 0.29 0.21 0.09 0.13 0.11 0.11 0.20 0.19 0.27 0.33 0.36 0.22 0.23 0.26 0.10 0.01 0.00 0.00 0.00 0.00 0.01 0.07 0.17 0.23 0.22 0.14 0.14 0.09 0.06 0.05 0.06 0.07
0.04 0.04 0.04 0.03 0.03 0.02 0.02 0.01 0.01 0.01 0.00 0.01 0.04 0.05 0.02 0.00 0.01 0.04 0.03 0.05 0.04 0.07 0.06 0.04 0.03 0.03 0.02 0.09 0.18 0.16 0.15 0.16 0.19 0.09 0.16 0.16 0.06 0.01 0.00 0.00 0.00 0.01 0.00 0.00 0.01 0.03 0.06 0.06 0.04 0.06 0.05 0.04 0.03 0.04
0.04 0.04 0.03 0.03 0.03 0.02 0.01 0.02 0.02 0.01 0.00 0.00 0.01 0.02 0.01 0.03 0.08 0.10 0.03 0.01 0.02 0.02 0.04 0.01 0.01 0.01 0.01 0.03 0.08 0.10 0.12 0.19 0.12 0.06 0.14 0.10 0.03 0.01 0.01 0.00 0.01 0.02 0.02 0.01 0.01 0.01 0.01 0.01 0.02 0.07 0.09 0.11 0.09 0.06
0.04 0.03 0.03 0.03 0.03 0.02 0.01 0.02 0.02 0.00 0.00 0.01 0.07 0.06 0.03 0.03 0.05 0.05 0.10 0.13 0.03 0.01 0.02 0.01 0.02 0.01 0.02 0.06 0.10 0.08 0.11 0.07 0.03 0.07 0.09 0.06 0.02 0.04 0.06 0.08 0.01 0.01 0.01 0.05 0.06 0.04 0.05 0.03 0.03 0.15 0.25 0.31 0.32 0.24
0.04 0.03 0.02 0.03 0.02 0.01 0.02 0.01 0.00 0.01 0.01 0.04 0.06 0.03 0.02 0.04 0.02 0.03 0.07 0.12 0.04 0.00 0.00 0.01 0.03 0.03 0.04 0.12 0.07 0.02 0.01 0.02 0.06 0.06 0.13 0.05 0.08 0.05 0.13 0.22 0.19 0.11 0.06 0.11 0.22 0.13 0.11 0.11 0.08 0.16 0.32 0.35 0.36 0.31
0.04 0.02 0.02 0.01 0.02 0.01 0.00 0.00 0.00 0.00 0.01 0.02 0.03 0.03 0.01 0.01 0.02 0.02 0.01 0.01 0.01 0.01 0.02 0.04 0.05 0.02 0.01 0.02 0.02 0.01 0.01 0.01 0.06 0.14 0.08 0.03 0.05 0.06 0.16 0.23 0.31 0.44 0.33 0.27 0.40 0.38 0.29 0.25 0.24 0.31 0.32 0.27 0.25 0.21
0.04 0.02 0.01 0.01 0.01 0.00 0.00 0.00 0.00 0.01 0.01 0.01 0.01 0.02 0.06 0.20 0.09 0.07 0.08 0.06 0.06 0.06 0.08 0.08 0.08 0.03 0.01 0.01 0.01 0.02 0.05 0.12 0.11 0.11 0.07 0.03 0.03 0.05 0.07 0.12 0.14 0.24 0.33 0.35 0.33 0.41 0.44 0.44 0.47 0.43 0.31 0.22 0.22 0.19
0.05 0.04 0.00 0.00 0.00 0.00 0.00 0.00 0.01 0.04 0.00 0.01 0.01 0.01 0.22 0.32 0.11 0.12 0.10 0.08 0.08 0.12 0.10 0.06 0.05 0.03 0.02 0.03 0.09 0.14 0.18 0.15 0.09 0.07 0.05 0.04 0.08 0.06 0.03 0.03 0.08 0.05 0.12 0.21 0.28 0.36 0.42 0.46 0.39 0.30 0.23 0.20 0.17 0.13
0.05 0.01 0.00 0.00 0.02 0.00 0.00 0.00 0.00 0.00 0.00 0.01 0.06 0.02 0.02 0.04 0.21 0.21 0.04 0.04 0.09 0.16 0.12 0.12 0.11 0.08 0.05 0.09 0.19 0.22 0.11 0.06 0.07 0.09 0.06 0.05 0.03 0.05 0.02 0.04 0.07 0.10 0.09 0.18 0.22 0.25 0.23 0.19 0.12 0.13 0.11 0.10 0.09 0.08
0.05 0.03 0.01 0.01 0.03 0.04 0.00 0.00 0.00 0.01 0.01 0.01 0.01 0.00 0.01 0.04 0.05 0.02 0.00 0.01 0.07 0.13 0.22 0.15 0.06 0.09 0.16 0.28 0.25 0.10 0.07 0.06 0.06 0.11 0.12 0.08 0.03 0.04 0.06 0.15 0.13 0.20 0.19 0.26 0.18 0.15 0.12 0.09 0.07 0.09 0.11 0.08 0.04 0.02
0.03 0.01 0.00 0.00 0.01 0.01 0.03 0.02 0.01 0.02 0.04 0.01 0.01 0.01 0.02 0.08 0.08 0.03 0.00 0.00 0.04 0.07 0.09 0.12 0.16 0.24 0.29 0.24 0.29 0.17 0.09 0.05 0.05 0.07 0.10 0.14 0.16 0.13 0.05 0.21 0.26 0.21 0.22 0.22 0.21 0.24 0.22 0.20 0.19 0.08 0.02 0.01 0.01 0.01
0.02 0.00 0.00 0.01 0.01 0.01 0.02 0.02 0.03 0.02 0.01 0.01 0.01 0.01 0.05 0.05 0.09 0.09 0.05 0.02 0.03 0.08 0.16 0.18 0.19 0.16 0.22 0.25 0.20 0.15 0.11 0.07 0.06 0.09 0.07 0.08 0.06 0.03 0.03 0.05 0.05 0.04 0.06 0.09 0.11 0.20 0.20 0.07 0.01 0.00 0.00 0.00 0.01 0.01
0.02 0.00 0.01 0.01 0.01 0.01 0.01 0.01 0.02 0.03 0.02 0.02 0.01 0.01 0.04 0.06 0.05 0.09 0.10 0.15 0.22 0.15 0.12 0.15 0.17 0.17 0.17 0.21 0.17 0.14 0.15 0.12 0.13 0.07 0.03 0.02 0.02 0.02 0.03 0.03 0.01 0.02 0.01 0.01 0.00 0.06 0.10 0.02 0.00 0.00 0.00 0.01 0.01 0.01
0.01 0.00 0.01 0.03 0.02 0.00 0.00 0.00 0.02 0.03 0.02 0.04 0.05 0.04 0.05 0.08 0.09 0.13 0.23 0.18 0.19 0.14 0.10 0.10 0.18 0.27 0.27 0.27 0.21 0.13 0.12 0.12 0.16 0.17 0.08 0.05 0.03 0.02 0.02 0.02 0.02 0.01 0.02 0.02 0.01 0.02 0.03 0.01 0.01 0.01 0.01 0.02 0.01 0.02
0.01 0.01 0.01 0.01 0.01 0.01 0.00 0.01 0.02 0.06 0.06 0.08 0.10 0.08 0.15 0.13 0.11 0.20 0.21 0.18 0.14 0.05 0.05 0.09 0.07 0.13 0.25 0.24 0.26 0.27 0.24 0.21 0.23 0.25 0.19 0.14 0.08 0.06 0.03 0.03 0.02 0.02 0.02 0.02 0.02 0.02 0.02 0.02 0.01 0.02 0.01 0.01 0.02 0.02
0.03 0.00 0.01 0.00 0.01 0.01 0.00 0.00 0.01 0.02 0.02 0.01 0.02 0.07 0.11 0.10 0.20 0.15 0.11 0.12 0.07 0.05 0.05 0.04 0.08 0.08 0.09 0.12 0.18 0.25 0.31 0.37 0.42 0.45 0.41 0.30 0.21 0.17 0.16 0.14 0.10 0.07 0.06 0.03 0.05 0.04 0.05 0.04 0.02 0.02 0.01 0.01 0.02 0.03
0.01 0.00 0.01 0.00 0.00 0.00 0.00 0.01 0.02 0.01 0.01 0.01 0.02 0.02 0.01 0.03 0.06 0.09 0.08 0.10 0.06 0.05 0.05 0.05 0.06 0.06 0.07 0.08 0.09 0.13 0.18 0.30 0.42 0.35 0.47 0.46 0.44 0.35 0.23 0.17 0.16 0.16 0.14 0.07 0.04 0.03 0.03 0.03 0.02 0.02 0.02 0.02 0.02 0.03
0.01 0.01 0.01 0.00 0.00 0.00 0.00 0.00 0.00 0.00 0.01 0.01 0.02 0.01 0.01 0.03 0.07 0.06 0.05 0.03 0.04 0.03 0.03 0.03 0.04 0.05 0.07 0.08 0.09 0.12 0.13 0.16 0.21 0.34 0.46 0.47 0.48 0.52 0.43 0.36 0.29 0.22 0.18 0.12 0.07 0.05 0.03 0.02 0.02 0.01 0.01 0.02 0.02 0.02
0.01 0.00 0.00 0.00 0.00 0.00 0.00 0.00 0.00 0.01 0.01 0.01 0.01 0.02 0.02 0.04 0.07 0.04 0.03 0.03 0.03 0.03 0.02 0.02 0.02 0.03 0.04 0.06 0.08 0.08 0.10 0.16 0.19 0.21 0.22 0.27 0.38 0.50 0.47 0.39 0.34 0.33 0.32 0.29 0.21 0.15 0.08 0.04 0.03 0.02 0.02 0.02 0.03 0.02
0.01 0.00 0.00 0.00 0.00 0.00 0.00 0.00 0.01 0.01 0.00 0.00 0.01 0.03 0.04 0.03 0.03 0.03 0.03 0.02 0.02 0.03 0.03 0.02 0.02 0.01 0.02 0.02 0.01 0.03 0.05 0.06 0.11 0.13 0.13 0.18 0.20 0.26 0.31 0.32 0.27 0.25 0.30 0.33 0.32 0.27 0.19 0.11 0.04 0.01 0.01 0.01 0.02 0.01
0.01 0.00 0.00 0.00 0.00 0.01 0.02 0.01 0.03 0.00 0.00 0.00 0.00 0.01 0.02 0.04 0.03 0.02 0.01 0.02 0.04 0.04 0.01 0.01 0.01 0.00 0.00 0.01 0.01 0.00 0.00 0.01 0.02 0.04 0.06 0.09 0.15 0.17 0.16 0.18 0.19 0.19 0.19 0.22 0.27 0.30 0.30 0.26 0.22 0.16 0.08 0.04 0.03 0.03
0.00 0.00 0.00 0.00 0.02 0.04 0.01 0.00 0.00 0.00 0.00 0.00 0.01 0.01 0.04 0.04 0.02 0.02 0.02 0.02 0.01 0.01 0.01 0.01 0.01 0.00 0.00 0.00 0.00 0.00 0.02 0.01 0.00 0.00 0.01 0.01 0.03 0.05 0.04 0.06 0.08 0.09 0.10 0.12 0.15 0.20 0.27 0.27 0.23 0.18 0.13 0.10 0.08 0.04
0.01 0.01 0.00 0.00 0.02 0.01 0.00 0.00 0.00 0.00 0.01 0.01 0.02 0.01 0.01 0.01 0.03 0.04 0.02 0.01 0.01 0.01 0.02 0.02 0.02 0.01 0.00 0.00 0.00 0.00 0.00 0.00 0.01 0.01 0.00 0.00 0.01 0.01 0.01 0.01 0.01 0.01 0.01 0.02 0.05 0.09 0.14 0.19 0.21 0.19 0.16 0.13 0.12 0.12
0.01 0.00 0.00 0.00 0.01 0.00 0.00 0.00 0.00 0.00 0.01 0.01 0.03 0.02 0.01 0.01 0.02 0.05 0.03 0.02 0.03 0.02 0.01 0.01 0.01 0.00 0.00 0.00 0.00 0.00 0.01 0.01 0.01 0.01 0.00 0.00 0.00 0.00 0.00 0.01 0.01 0.01 0.00 0.00 0.01 0.02 0.05 0.10 0.12 0.12 0.11 0.10 0.11 0.11

GFSWCAN_prec_precacc24_234.txt.gz
Total_Precipitation_Accumulation
0.05 0.05 0.04 0.04 0.05 0.06 0.05 0.06 0.14 0.20 0.15 0.17 0.17 0.14 0.25 0.33 0.44 0.50 0.47 0.31 0.65 0.89 0.46 0.22 0.30 0.30 0.49 0.67 0.85 0.60 0.64 0.94 1.24 1.53 1.32 0.96 0.67 0.42 0.31 0.20 0.24 0.50 0.66 0.78 1.02 1.07 0.61 0.05 0.00 0.01 0.03 0.01 0.00 0.00
0.05 0.05 0.05 0.04 0.04 0.04 0.04 0.04 0.05 0.12 0.22 0.16 0.11 0.15 0.12 0.19 0.31 0.55 0.70 0.56 0.64 1.21 0.86 0.16 0.16 0.27 0.19 0.43 0.56 0.60 0.50 0.37 0.47 0.71 0.76 0.62 0.62 0.48 0.34 0.25 0.12 0.19 0.42 0.43 0.38 0.41 0.23 0.09 0.07 0.02 0.00 0.00 0.00 0.00
0.05 0.05 0.05 0.05 0.04 0.04 0.04 0.04 0.06 0.06 0.08 0.20 0.13 0.08 0.15 0.17 0.24 0.47 0.53 0.59 0.66 0.84 0.43 0.25 0.27 0.23 0.17 0.25 0.38 0.80 0.40 0.21 0.25 0.22 0.42 0.41 0.39 0.37 0.43 0.29 0.09 0.08 0.15 0.33 0.37 0.20 0.10 0.08 0.08 0.10 0.07 0.02 0.00 0.00
0.04 0.05 0.05 0.04 0.04 0.04 0.04 0.05 0.05 0.04 0.04 0.06 0.22 0.10 0.15 0.16 0.28 0.42 0.42 0.32 0.58 0.59 0.33 0.16 0.23 0.30 0.31 0.22 0.28 0.53 0.40 0.25 0.24 0.33 0.53 0.62 0.43 0.29 0.33 0.22 0.16 0.08 0.12 0.23 0.29 0.17 0.11 0.09 0.03 0.01 0.03 0.07 0.05 0.02
0.05 0.04 0.04 0.03 0.03 0.04 0.04 0.04 0.03 0.03 0.03 0.04 0.26 0.37 0.25 0.31 0.44 0.32 0.27 0.29 0.38 0.59 0.43 0.13 0.12 0.30 0.39 0.34 0.28 0.29 0.45 0.41 0.35 0.50 0.73 0.52 0.30 0.28 0.33 0.29 0.19 0.08 0.10 0.10 0.09 0.03 0.02 0.05 0.06 0.04 0.03 0.04 0.08 0.06
0.04 0.05 0.05 0.04 0.03 0.04 0.04 0.04 0.03 0.03 0.03 0.03 0.05 0.32 0.54 0.68 0.55 0.42 0.51 0.36 0.27 0.30 0.35 0.17 0.12 0.25 0.52 0.54 0.58 0.48 0.48 0.58 0.51 0.46 0.40 0.26 0.18 0.23 0.35 0.28 0.11 0.04 0.03 0.03 0.02 0.00 0.00 0.00 0.00 0.02 0.05 0.03 0.05 0.08
0.05 0.04 0.04 0.04 0.04 0.04 0.03 0.03 0.02 0.01 0.01 0.01 0.02 0.06 0.17 0.38 0.43 0.67 0.39 0.23 0.23 0.26 0.37 0.23 0.12 0.16 0.34 0.42 0.52 0.70 0.66 0.70 0.52 0.44 0.32 0.18 0.11 0.20 0.30 0.21 0.09 0.06 0.05 0.03 0.03 0.05 0.03 0.01 0.00 0.00 0.00 0.02 0.06 0.08
0.04 0.04 0.04 0.04 0.04 0.04 0.03 0.02 0.01 0.00 0.00 0.00 0.00 0.01 0.06 0.16 0.31 0.44 0.30 0.27 0.35 0.51 0.35 0.28 0.13 0.12 0.13 0.26 0.32 0.39 0.61 0.62 0.60 0.44 0.25 0.16 0.19 0.23 0.21 0.05 0.08 0.15 0.13 0.11 0.09 0.05 0.06 0.05 0.03 0.02 0.01 0.01 0.02 0.03
0.04 0.04 0.04 0.04 0.04 0.04 0.03 0.01 0.01 0.00 0.00 0.00 0.00 0.00 0.00 0.05 0.05 0.05 0.07 0.17 0.28 0.63 0.60 0.29 0.22 0.16 0.05 0.17 0.22 0.25 0.34 0.52 0.48 0.51 0.32 0.24 0.21 0.19 0.08 0.01 0.00 0.05 0.13 0.20 0.15 0.14 0.13 0.11 0.10 0.07 0.05 0.05 0.07 0.05
0.04 0.04 0.04 0.04 0.04 0.03 0.02 0.02 0.01 0.01 0.01 0.00 0.00 0.02 0.03 0.02 0.00 0.00 0.01 0.05 0.18 0.36 0.36 0.23 0.10 0.16 0.13 0.13 0.22 0.20 0.29 0.34 0.37 0.22 0.23 0.26 0.10 0.01 0.00 0.00 0.00 0.00 0.01 0.07 0.17 0.23 0.22 0.14 0.14 0.09 0.06 0.05 0.06 0.07
0.05 0.05 0.04 0.03 0.03 0.03 0.03 0.02 0.02 0.02 0.00 0.01 0.04 0.05 0.02 0.00 0.01 0.04 0.04 0.07 0.08 0.10 0.08 0.05 0.03 0.04 0.02 0.11 0.21 0.19 0.18 0.17 0.21 0.10 0.16 0.16 0.06 0.01 0.00 0.00 0.00 0.01 0.00 0.00 0.01 0.03 0.06 0.06 0.04 0.06 0.05 0.04 0.03 0.05
0.05 0.05 0.04 0.03 0.03 0.03 0.03 0.02 0.02 0.02 0.00 0.00 0.02 0.03 0.02 0.03 0.09 0.12 0.04 0.01 0.03 0.03 0.04 0.02 0.01 0.01 0.01 0.03 0.10 0.12 0.15 0.22 0.14 0.06 0.15 0.10 0.02 0.01 0.00 0.00 0.01 0.02 0.02 0.02 0.01 0.01 0.01 0.01 0.02 0.07 0.09 0.11 0.09 0.06
0.05 0.04 0.05 0.04 0.03 0.03 0.03 0.02 0.03 0.01 0.00 0.01 0.10 0.08 0.04 0.04 0.06 0.06 0.11 0.15 0.04 0.02 0.03 0.01 0.03 0.02 0.03 0.07 0.11 0.13 0.15 0.08 0.03 0.08 0.09 0.06 0.02 0.03 0.05 0.07 0.01 0.01 0.02 0.07 0.07 0.05 0.05 0.03 0.03 0.15 0.25 0.32 0.35 0.29
0.04 0.03 0.04 0.04 0.03 0.02 0.02 0.02 0.01 0.02 0.02 0.06 0.08 0.04 0.03 0.04 0.02 0.03 0.08 0.14 0.04 0.00 0.01 0.02 0.04 0.04 0.05 0.14 0.09 0.05 0.02 0.03 0.07 0.07 0.15 0.05 0.08 0.04 0.13 0.22 0.19 0.11 0.06 0.14 0.24 0.14 0.11 0.11 0.08 0.16 0.33 0.40 0.44 0.47
0.03 0.03 0.03 0.02 0.02 0.01 0.01 0.00 0.01 0.02 0.02 0.03 0.05 0.04 0.01 0.01 0.01 0.01 0.01 0.01 0.01 0.01 0.03 0.06 0.07 0.04 0.03 0.04 0.04 0.03 0.01 0.02 0.09 0.18 0.09 0.03 0.05 0.07 0.17 0.23 0.31 0.45 0.34 0.29 0.43 0.42 0.32 0.29 0.29 0.36 0.39 0.36 0.36 0.36
0.04 0.03 0.01 0.02 0.00 0.00 0.00 0.00 0.01 0.02 0.03 0.01 0.02 0.02 0.05 0.20 0.09 0.07 0.08 0.07 0.06 0.06 0.09 0.12 0.13 0.09 0.04 0.02 0.04 0.04 0.07 0.14 0.13 0.11 0.07 0.04 0.04 0.06 0.09 0.13 0.15 0.25 0.34 0.37 0.37 0.47 0.49 0.50 0.57 0.63 0.57 0.45 0.40 0.37
0.06 0.05 0.01 0.01 0.01 0.01 0.00 0.01 0.02 0.09 0.03 0.01 0.01 0.01 0.22 0.32 0.11 0.13 0.11 0.09 0.08 0.13 0.12 0.08 0.07 0.06 0.04 0.05 0.12 0.17 0.21 0.16 0.09 0.07 0.05 0.05 0.10 0.08 0.04 0.03 0.09 0.08 0.16 0.26 0.31 0.41 0.50 0.60 0.52 0.43 0.40 0.42 0.36 0.34
0.06 0.02 0.02 0.04 0.05 0.01 0.00 0.01 0.01 0.01 0.02 0.01 0.06 0.02 0.02 0.04 0.22 0.21 0.04 0.04 0.10 0.18 0.14 0.14 0.12 0.11 0.07 0.10 0.19 0.22 0.12 0.07 0.07 0.09 0.07 0.05 0.03 0.06 0.03 0.04 0.08 0.15 0.16 0.28 0.30 0.33 0.35 0.29 0.19 0.25 0.25 0.25 0.24 0.25
0.05 0.04 0.04 0.06 0.09 0.06 0.02 0.01 0.01 0.03 0.01 0.01 0.01 0.00 0.01 0.04 0.05 0.02 0.00 0.01 0.08 0.15 0.25 0.16 0.06 0.10 0.16 0.28 0.25 0.11 0.07 0.06 0.07 0.11 0.12 0.09 0.05 0.05 0.07 0.16 0.15 0.27 0.28 0.33 0.26 0.21 0.18 0.15 0.12 0.15 0.18 0.12 0.08 0.08
0.04 0.02 0.02 0.03 0.06 0.04 0.03 0.02 0.02 0.02 0.04 0.02 0.01 0.01 0.02 0.08 0.09 0.03 0.00 0.00 0.05 0.07 0.09 0.12 0.17 0.24 0.29 0.25 0.30 0.17 0.10 0.06 0.06 0.08 0.10 0.15 0.17 0.14 0.06 0.21 0.26 0.24 0.28 0.28 0.28 0.34 0.32 0.30 0.29 0.15 0.04 0.01 0.01 0.02
0.04 0.00 0.00 0.02 0.03 0.04 0.03 0.02 0.04 0.02 0.01 0.01 0.01 0.01 0.06 0.06 0.10 0.10 0.06 0.01 0.03 0.07 0.16 0.18 0.19 0.16 0.22 0.26 0.20 0.16 0.11 0.08 0.06 0.10 0.08 0.08 0.06 0.03 0.03 0.05 0.05 0.04 0.06 0.11 0.16 0.27 0.25 0.10 0.02 0.00 0.00 0.01 0.01 0.01
0.06 0.02 0.04 0.02 0.03 0.04 0.03 0.01 0.01 0.02 0.02 0.01 0.01 0.01 0.05 0.07 0.06 0.10 0.10 0.14 0.21 0.14 0.11 0.15 0.17 0.17 0.17 0.21 0.17 0.15 0.16 0.13 0.13 0.07 0.04 0.03 0.02 0.02 0.03 0.03 0.01 0.02 0.01 0.02 0.03 0.12 0.12 0.02 0.00 0.00 0.01 0.01 0.01 0.01
0.10 0.06 0.05 0.05 0.07 0.03 0.00 0.00 0.02 0.02 0.02 0.03 0.05 0.04 0.05 0.08 0.08 0.12 0.19 0.14 0.15 0.12 0.09 0.09 0.17 0.27 0.26 0.27 0.21 0.13 0.12 0.13 0.17 0.18 0.09 0.06 0.05 0.03 0.02 0.02 0.01 0.01 0.02 0.02 0.01 0.05 0.07 0.02 0.01 0.01 0.01 0.01 0.01 0.02
0.11 0.06 0.04 0.03 0.05 0.02 0.00 0.01 0.02 0.04 0.04 0.06 0.08 0.08 0.13 0.10 0.08 0.16 0.16 0.14 0.12 0.04 0.05 0.08 0.07 0.13 0.24 0.22 0.24 0.24 0.21 0.19 0.23 0.25 0.19 0.15 0.09 0.07 0.04 0.03 0.03 0.03 0.02 0.02 0.02 0.03 0.05 0.05 0.03 0.02 0.01 0.01 0.02 0.02
0.12 0.03 0.01 0.02 0.02 0.02 0.00 0.00 0.01 0.01 0.01 0.01 0.02 0.05 0.05 0.03 0.09 0.07 0.08 0.10 0.04 0.03 0.04 0.03 0.07 0.06 0.07 0.10 0.15 0.20 0.26 0.31 0.38 0.43 0.39 0.30 0.22 0.18 0.16 0.15 0.11 0.07 0.06 0.03 0.05 0.04 0.06 0.06 0.05 0.04 0.03 0.01 0.02 0.03
0.04 0.00 0.00 0.00 0.01 0.01 0.00 0.01 0.01 0.01 0.01 0.00 0.02 0.01 0.01 0.02 0.05 0.07 0.05 0.08 0.05 0.04 0.04 0.03 0.03 0.03 0.03 0.04 0.05 0.08 0.13 0.23 0.36 0.31 0.41 0.43 0.44 0.38 0.27 0.20 0.18 0.17 0.15 0.08 0.05 0.04 0.04 0.03 0.03 0.03 0.03 0.03 0.03 0.03
0.01 0.02 0.01 0.00 0.01 0.00 0.00 0.00 0.00 0.00 0.00 0.01 0.01 0.01 0.01 0.03 0.06 0.05 0.04 0.02 0.03 0.02 0.02 0.01 0.02 0.02 0.03 0.03 0.04 0.06 0.07 0.10 0.15 0.28 0.42 0.45 0.48 0.54 0.47 0.40 0.32 0.25 0.20 0.14 0.08 0.06 0.05 0.03 0.02 0.02 0.02 0.03 0.03 0.02
0.01 0.00 0.01 0.01 0.00 0.00 0.00 0.00 0.00 0.00 0.01 0.00 0.01 0.01 0.02 0.03 0.06 0.03 0.02 0.02 0.02 0.02 0.01 0.01 0.01 0.01 0.01 0.02 0.03 0.03 0.05 0.09 0.13 0.15 0.16 0.22 0.34 0.47 0.46 0.40 0.37 0.35 0.36 0.34 0.25 0.17 0.09 0.05 0.04 0.02 0.02 0.02 0.03 0.02
0.01 0.00 0.00 0.01 0.02 0.01 0.00 0.00 0.01 0.01 0.00 0.00 0.01 0.03 0.04 0.03 0.03 0.03 0.02 0.01 0.01 0.02 0.02 0.01 0.01 0.01 0.02 0.01 0.01 0.01 0.02 0.03 0.06 0.08 0.09 0.13 0.16 0.23 0.30 0.31 0.29 0.28 0.33 0.36 0.36 0.31 0.22 0.12 0.05 0.02 0.02 0.02 0.02 0.01
0.01 0.01 0.01 0.01 0.01 0.02 0.02 0.01 0.03 0.00 0.00 0.00 0.00 0.01 0.02 0.04 0.03 0.02 0.01 0.02 0.03 0.03 0.01 0.01 0.01 0.00 0.00 0.01 0.01 0.00 0.00 0.00 0.01 0.03 0.04 0.07 0.13 0.15 0.15 0.17 0.19 0.19 0.21 0.25 0.31 0.35 0.35 0.31 0.26 0.22 0.12 0.05 0.04 0.03
0.01 0.00 0.00 0.01 0.03 0.05 0.01 0.00 0.00 0.00 0.00 0.00 0.00 0.01 0.04 0.04 0.03 0.03 0.02 0.02 0.01 0.01 0.01 0.01 0.01 0.00 0.00 0.00 0.00 0.00 0.02 0.01 0.00 0.00 0.00 0.01 0.02 0.04 0.04 0.05 0.08 0.09 0.10 0.13 0.16 0.24 0.33 0.33 0.27 0.21 0.16 0.12 0.08 0.05
0.02 0.01 0.00 0.01 0.03 0.02 0.00 0.00 0.00 0.00 0.00 0.01 0.02 0.01 0.01 0.01 0.03 0.04 0.02 0.02 0.02 0.02 0.02 0.02 0.02 0.01 0.00 0.00 0.00 0.00 0.00 0.00 0.01 0.00 0.00 0.00 0.01 0.01 0.00 0.00 0.01 0.01 0.01 0.02 0.05 0.10 0.16 0.24 0.28 0.26 0.23 0.18 0.15 0.14
0.02 0.01 0.00 0.00 0.01 0.01 0.00 0.00 0.00 0.00 0.00 0.01 0.03 0.01 0.01 0.01 0.02 0.05 0.03 0.02 0.03 0.03 0.01 0.01 0.01 0.00 0.00 0.00 0.00 0.00 0.01 0.01 0.01 0.01 0.00 0.00 0.00 0.00 0.00 0.01 0.01 0.01 0.00 0.00 0.00 0.02 0.06 0.12 0.18 0.21 0.20 0.17 0.15 0.14

GFSWCAN_prec_precacc24_237.txt.gz
Total_Precipitation_Accumulation
0.06 0.05 0.05 0.05 0.06 0.06 0.06 0.05 0.04 0.04 0.07 0.12 0.12 0.12 0.23 0.29 0.39 0.49 0.44 0.28 0.64 0.92 0.42 0.14 0.12 0.21 0.25 0.47 0.77 0.42 0.55 0.80 1.14 1.47 1.30 0.94 0.65 0.42 0.33 0.20 0.24 0.49 0.64 0.76 0.99 1.09 0.63 0.05 0.00 0.01 0.03 0.01 0.00 0.00
0.06 0.06 0.06 0.05 0.04 0.04 0.05 0.05 0.04 0.05 0.07 0.11 0.09 0.10 0.09 0.14 0.22 0.48 0.65 0.46 0.57 1.20 0.84 0.13 0.04 0.02 0.08 0.15 0.47 0.62 0.57 0.36 0.53 0.74 0.77 0.68 0.68 0.52 0.36 0.26 0.13 0.19 0.41 0.43 0.39 0.42 0.23 0.09 0.07 0.02 0.00 0.00 0.00 0.00
0.05 0.05 0.05 0.05 0.05 0.04 0.05 0.05 0.05 0.06 0.05 0.06 0.06 0.06 0.11 0.12 0.17 0.39 0.46 0.55 0.67 0.83 0.43 0.22 0.13 0.03 0.02 0.06 0.17 0.81 0.41 0.20 0.25 0.25 0.49 0.49 0.46 0.41 0.47 0.31 0.11 0.08 0.14 0.33 0.37 0.18 0.09 0.08 0.08 0.10 0.07 0.02 0.00 0.00
0.05 0.05 0.05 0.04 0.04 0.04 0.04 0.06 0.05 0.04 0.04 0.05 0.10 0.07 0.12 0.12 0.18 0.28 0.36 0.31 0.62 0.69 0.39 0.10 0.08 0.08 0.05 0.09 0.15 0.29 0.36 0.28 0.30 0.41 0.66 0.72 0.48 0.31 0.35 0.23 0.16 0.07 0.12 0.22 0.28 0.16 0.11 0.09 0.03 0.01 0.03 0.07 0.05 0.02
0.05 0.05 0.04 0.04 0.04 0.04 0.04 0.05 0.03 0.03 0.04 0.04 0.15 0.16 0.16 0.20 0.25 0.21 0.17 0.19 0.34 0.68 0.49 0.10 0.05 0.08 0.12 0.16 0.24 0.20 0.35 0.40 0.42 0.67 0.85 0.56 0.32 0.31 0.35 0.31 0.18 0.07 0.10 0.11 0.09 0.03 0.02 0.05 0.06 0.04 0.03 0.04 0.08 0.06
0.04 0.05 0.05 0.04 0.03 0.04 0.04 0.04 0.04 0.04 0.03 0.03 0.04 0.23 0.33 0.47 0.29 0.31 0.34 0.18 0.24 0.43 0.61 0.19 0.04 0.07 0.24 0.26 0.39 0.39 0.43 0.59 0.62 0.62 0.48 0.31 0.23 0.29 0.39 0.29 0.11 0.04 0.03 0.03 0.02 0.00 0.00 0.00 0.00 0.02 0.05 0.03 0.05 0.08
0.05 0.05 0.04 0.04 0.04 0.04 0.03 0.04 0.03 0.02 0.02 0.01 0.03 0.06 0.16 0.34 0.33 0.50 0.31 0.15 0.25 0.51 0.58 0.21 0.06 0.04 0.18 0.26 0.37 0.62 0.64 0.74 0.60 0.55 0.40 0.23 0.15 0.25 0.33 0.21 0.09 0.06 0.05 0.03 0.03 0.05 0.03 0.01 0.00 0.00 0.00 0.02 0.06 0.08
0.04 0.04 0.04 0.05 0.05 0.04 0.03 0.03 0.02 0.01 0.01 0.00 0.00 0.02 0.06 0.16 0.31 0.41 0.26 0.25 0.43 0.67 0.43 0.27 0.09 0.06 0.07 0.19 0.29 0.37 0.63 0.66 0.65 0.48 0.28 0.18 0.23 0.29 0.23 0.05 0.08 0.15 0.13 0.11 0.09 0.05 0.06 0.05 0.03 0.02 0.01 0.01 0.02 0.03
0.05 0.04 0.04 0.04 0.04 0.04 0.03 0.02 0.01 0.01 0.00 0.00 0.00 0.00 0.01 0.05 0.06 0.06 0.06 0.16 0.30 0.68 0.65 0.31 0.19 0.16 0.04 0.17 0.21 0.25 0.36 0.55 0.51 0.54 0.33 0.25 0.23 0.22 0.08 0.01 0.00 0.05 0.13 0.20 0.15 0.14 0.13 0.11 0.10 0.07 0.05 0.05 0.07 0.05
0.05 0.05 0.05 0.05 0.04 0.03 0.02 0.03 0.01 0.01 0.01 0.00 0.00 0.02 0.04 0.03 0.00 0.01 0.03 0.07 0.21 0.40 0.38 0.21 0.09 0.18 0.14 0.16 0.26 0.24 0.32 0.36 0.41 0.24 0.24 0.27 0.10 0.01 0.00 0.00 0.00 0.00 0.01 0.07 0.17 0.23 0.22 0.15 0.14 0.09 0.06 0.05 0.06 0.07
0.05 0.05 0.05 0.04 0.04 0.04 0.03 0.03 0.03 0.02 0.00 0.02 0.05 0.06 0.02 0.00 0.02 0.07 0.06 0.10 0.12 0.14 0.09 0.04 0.02 0.05 0.05 0.13 0.25 0.23 0.23 0.21 0.24 0.11 0.18 0.18 0.07 0.02 0.00 0.00 0.00 0.01 0.01 0.00 0.01 0.03 0.06 0.07 0.05 0.06 0.05 0.04 0.03 0.05
0.04 0.04 0.04 0.04 0.04 0.04 0.03 0.04 0.04 0.02 0.01 0.00 0.02 0.03 0.02 0.04 0.11 0.14 0.07 0.04 0.05 0.06 0.08 0.04 0.04 0.03 0.04 0.03 0.11 0.15 0.19 0.25 0.17 0.09 0.17 0.12 0.05 0.01 0.00 0.00 0.01 0.02 0.02 0.02 0.01 0.01 0.02 0.02 0.03 0.08 0.09 0.11 0.09 0.06
0.04 0.04 0.04 0.04 0.04 0.04 0.04 0.03 0.04 0.02 0.01 0.02 0.12 0.10 0.06 0.05 0.09 0.08 0.13 0.17 0.06 0.04 0.07 0.06 0.07 0.05 0.05 0.08 0.13 0.16 0.19 0.10 0.06 0.11 0.11 0.08 0.04 0.03 0.05 0.07 0.01 0.01 0.02 0.07 0.07 0.05 0.06 0.04 0.04 0.16 0.25 0.32 0.35 0.29
0.04 0.03 0.03 0.03 0.04 0.03 0.03 0.02 0.01 0.02 0.02 0.07 0.10 0.06 0.04 0.05 0.02 0.02 0.08 0.19 0.08 0.01 0.03 0.04 0.07 0.07 0.09 0.18 0.12 0.08 0.04 0.05 0.09 0.08 0.18 0.07 0.07 0.04 0.13 0.22 0.19 0.11 0.06 0.14 0.24 0.14 0.12 0.12 0.09 0.17 0.33 0.40 0.44 0.47
0.04 0.03 0.03 0.02 0.03 0.02 0.01 0.01 0.01 0.03 0.03 0.04 0.06 0.05 0.01 0.00 0.01 0.01 0.02 0.02 0.03 0.02 0.03 0.07 0.09 0.07 0.07 0.08 0.08 0.08 0.04 0.03 0.11 0.21 0.11 0.03 0.05 0.07 0.17 0.23 0.31 0.45 0.34 0.30 0.44 0.43 0.36 0.36 0.35 0.42 0.44 0.41 0.40 0.41
0.04 0.03 0.01 0.02 0.01 0.01 0.02 0.02 0.02 0.03 0.05 0.02 0.02 0.02 0.05 0.19 0.07 0.06 0.09 0.08 0.06 0.06 0.09 0.14 0.18 0.17 0.09 0.06 0.07 0.08 0.11 0.18 0.16 0.11 0.06 0.04 0.04 0.06 0.09 0.13 0.15 0.26 0.35 0.39 0.38 0.49 0.54 0.57 0.64 0.72 0.71 0.58 0.50 0.43
0.06 0.06 0.01 0.02 0.02 0.03 0.03 0.03 0.05 0.12 0.04 0.02 0.01 0.01 0.20 0.31 0.11 0.13 0.13 0.11 0.09 0.13 0.15 0.14 0.12 0.09 0.08 0.09 0.16 0.20 0.24 0.17 0.09 0.06 0.05 0.05 0.10 0.09 0.04 0.04 0.09 0.09 0.17 0.28 0.32 0.43 0.55 0.68 0.62 0.52 0.48 0.50 0.42 0.41
0.07 0.02 0.03 0.04 0.06 0.06 0.04 0.03 0.04 0.03 0.04 0.01 0.06 0.02 0.03 0.04 0.21 0.21 0.05 0.04 0.11 0.20 0.17 0.18 0.16 0.14 0.11 0.13 0.21 0.21 0.11 0.07 0.06 0.08 0.07 0.05 0.04 0.07 0.04 0.06 0.10 0.16 0.18 0.30 0.37 0.42 0.46 0.37 0.28 0.39 0.41 0.41 0.39 0.43
0.05 0.04 0.04 0.07 0.15 0.19 0.06 0.03 0.04 0.04 0.01 0.01 0.01 0.01 0.02 0.05 0.06 0.02 0.02 0.02 0.08 0.14 0.28 0.19 0.09 0.11 0.17 0.27 0.21 0.09 0.07 0.06 0.07 0.11 0.12 0.10 0.07 0.06 0.08 0.16 0.17 0.31 0.30 0.36 0.31 0.29 0.29 0.24 0.21 0.24 0.27 0.18 0.13 0.18
0.04 0.02 0.02 0.03 0.12 0.21 0.07 0.03 0.05 0.04 0.04 0.02 0.02 0.01 0.03 0.09 0.10 0.03 0.00 0.01 0.05 0.06 0.10 0.13 0.16 0.21 0.27 0.24 0.28 0.15 0.10 0.06 0.06 0.08 0.10 0.15 0.17 0.14 0.06 0.21 0.26 0.25 0.29 0.30 0.31 0.39 0.38 0.32 0.31 0.16 0.06 0.04 0.05 0.07
0.05 0.01 0.01 0.03 0.09 0.12 0.07 0.03 0.05 0.03 0.03 0.02 0.01 0.02 0.07 0.07 0.10 0.08 0.04 0.01 0.04 0.07 0.15 0.15 0.17 0.16 0.22 0.26 0.21 0.15 0.11 0.08 0.07 0.10 0.08 0.08 0.06 0.04 0.04 0.05 0.05 0.04 0.06 0.12 0.18 0.31 0.27 0.10 0.02 0.00 0.01 0.01 0.01 0.02
0.07 0.04 0.11 0.08 0.11 0.10 0.07 0.01 0.02 0.04 0.04 0.02 0.02 0.03 0.07 0.09 0.07 0.09 0.08 0.11 0.16 0.11 0.10 0.15 0.17 0.17 0.17 0.21 0.18 0.15 0.16 0.13 0.13 0.07 0.05 0.04 0.03 0.02 0.04 0.03 0.01 0.01 0.01 0.02 0.04 0.16 0.13 0.02 0.00 0.00 0.01 0.01 0.01 0.01
0.13 0.12 0.16 0.14 0.13 0.06 0.02 0.01 0.03 0.03 0.04 0.04 0.05 0.04 0.06 0.07 0.06 0.09 0.16 0.11 0.12 0.11 0.09 0.09 0.17 0.27 0.27 0.27 0.21 0.13 0.12 0.13 0.17 0.18 0.09 0.06 0.06 0.05 0.03 0.02 0.02 0.01 0.02 0.03 0.02 0.08 0.09 0.02 0.01 0.01 0.02 0.02 0.01 0.02
0.18 0.20 0.14 0.10 0.09 0.06 0.01 0.01 0.02 0.04 0.04 0.05 0.07 0.08 0.08 0.06 0.04 0.08 0.10 0.10 0.09 0.03 0.04 0.08 0.07 0.13 0.21 0.21 0.23 0.24 0.21 0.18 0.19 0.23 0.19 0.15 0.09 0.08 0.05 0.05 0.03 0.02 0.03 0.04 0.03 0.05 0.09 0.06 0.03 0.02 0.02 0.02 0.02 0.02
0.27 0.12 0.07 0.06 0.04 0.06 0.03 0.01 0.01 0.03 0.03 0.02 0.03 0.05 0.03 0.02 0.06 0.03 0.04 0.07 0.03 0.02 0.02 0.03 0.06 0.05 0.05 0.09 0.14 0.20 0.25 0.28 0.31 0.37 0.34 0.27 0.21 0.18 0.16 0.16 0.12 0.08 0.07 0.05 0.08 0.08 0.09 0.10 0.09 0.05 0.03 0.01 0.02 0.03
0.13 0.05 0.02 0.02 0.03 0.02 0.01 0.01 0.01 0.01 0.01 0.01 0.02 0.01 0.00 0.02 0.05 0.06 0.03 0.04 0.03 0.03 0.03 0.02 0.02 0.02 0.02 0.02 0.03 0.06 0.10 0.18 0.28 0.27 0.36 0.36 0.38 0.34 0.27 0.21 0.20 0.19 0.16 0.10 0.07 0.07 0.08 0.07 0.07 0.08 0.07 0.04 0.03 0.03
0.05 0.04 0.02 0.01 0.02 0.01 0.01 0.01 0.00 0.00 0.01 0.01 0.01 0.00 0.01 0.02 0.05 0.04 0.03 0.01 0.01 0.02 0.01 0.01 0.01 0.02 0.03 0.02 0.02 0.03 0.03 0.05 0.09 0.23 0.36 0.39 0.44 0.51 0.45 0.40 0.34 0.28 0.23 0.16 0.10 0.07 0.06 0.06 0.05 0.04 0.06 0.06 0.05 0.03
0.02 0.01 0.01 0.01 0.01 0.00 0.00 0.00 0.00 0.00 0.00 0.00 0.00 0.01 0.01 0.02 0.05 0.03 0.01 0.01 0.01 0.01 0.01 0.00 0.00 0.01 0.01 0.01 0.02 0.02 0.02 0.05 0.08 0.10 0.12 0.18 0.29 0.43 0.43 0.38 0.36 0.36 0.38 0.37 0.29 0.20 0.11 0.07 0.06 0.04 0.04 0.04 0.05 0.04
0.02 0.00 0.01 0.02 0.03 0.02 0.01 0.00 0.00 0.00 0.00 0.00 0.01 0.02 0.03 0.03 0.03 0.03 0.02 0.01 0.00 0.01 0.01 0.01 0.01 0.01 0.02 0.01 0.00 0.00 0.00 0.01 0.03 0.04 0.05 0.09 0.12 0.19 0.26 0.28 0.26 0.26 0.33 0.38 0.40 0.36 0.26 0.15 0.07 0.05 0.04 0.04 0.03 0.02
0.02 0.01 0.01 0.01 0.02 0.03 0.03 0.01 0.03 0.00 0.00 0.00 0.00 0.01 0.02 0.04 0.03 0.02 0.02 0.02 0.03 0.03 0.01 0.01 0.01 0.01 0.00 0.01 0.01 0.00 0.00 0.00 0.00 0.01 0.02 0.05 0.10 0.12 0.13 0.15 0.16 0.17 0.20 0.25 0.32 0.38 0.39 0.36 0.32 0.25 0.15 0.08 0.05 0.04
0.01 0.01 0.01 0.01 0.03 0.05 0.02 0.00 0.00 0.00 0.00 0.00 0.00 0.01 0.04 0.04 0.04 0.03 0.03 0.03 0.02 0.01 0.01 0.01 0.01 0.00 0.00 0.00 0.00 0.00 0.02 0.01 0.00 0.00 0.00 0.01 0.02 0.03 0.02 0.04 0.07 0.08 0.10 0.12 0.17 0.26 0.37 0.39 0.33 0.28 0.21 0.14 0.09 0.05
0.03 0.02 0.01 0.02 0.04 0.03 0.01 0.01 0.01 0.01 0.00 0.00 0.01 0.01 0.01 0.01 0.03 0.04 0.02 0.02 0.02 0.02 0.02 0.02 0.02 0.01 0.00 0.00 0.00 0.00 0.00 0.00 0.00 0.00 0.00 0.00 0.00 0.00 0.00 0.00 0.00 0.00 0.01 0.02 0.05 0.11 0.17 0.27 0.33 0.31 0.29 0.25 0.19 0.16
0.02 0.02 0.01 0.01 0.02 0.02 0.01 0.00 0.00 0.00 0.01 0.01 0.03 0.01 0.01 0.01 0.03 0.06 0.04 0.02 0.04 0.03 0.01 0.01 0.01 0.00 0.00 0.00 0.00 0.00 0.00 0.01 0.00 0.00 0.00 0.00 0.00 0.00 0.00 0.00 0.01 0.01 0.00 0.00 0.00 0.02 0.06 0.12 0.20 0.26 0.27 0.26 0.25 0.21

GFSWCAN_prec_precacc24_243.txt.gz
Total_Precipitation_Accumulation
0.05 0.05 0.06 0.07 0.07 0.06 0.06 0.05 0.04 0.03 0.04 0.05 0.06 0.07 0.08 0.16 0.23 0.35 0.33 0.26 0.67 0.96 0.37 0.07 0.04 0.10 0.14 0.28 0.54 0.28 0.58 0.61 0.71 0.87 0.57 0.33 0.17 0.10 0.17 0.14 0.21 0.47 0.60 0.67 0.86 1.03 0.61 0.05 0.00 0.01 0.03 0.01 0.00 0.00
0.07 0.07 0.07 0.06 0.05 0.04 0.05 0.05 0.04 0.05 0.07 0.07 0.06 0.06 0.07 0.12 0.19 0.36 0.43 0.21 0.42 1.14 0.78 0.12 0.03 0.02 0.04 0.08 0.31 0.47 0.49 0.22 0.51 0.64 0.47 0.43 0.38 0.31 0.20 0.24 0.15 0.27 0.46 0.47 0.39 0.41 0.24 0.10 0.07 0.02 0.00 0.00 0.00 0.00
0.05 0.06 0.06 0.05 0.05 0.04 0.04 0.05 0.06 0.05 0.05 0.05 0.05 0.07 0.10 0.10 0.14 0.37 0.44 0.28 0.55 0.79 0.42 0.21 0.13 0.03 0.02 0.03 0.12 0.80 0.33 0.10 0.13 0.13 0.37 0.35 0.24 0.17 0.25 0.19 0.09 0.09 0.17 0.49 0.49 0.21 0.10 0.09 0.08 0.10 0.07 0.02 0.00 0.00
0.06 0.06 0.06 0.05 0.05 0.05 0.05 0.06 0.05 0.04 0.04 0.04 0.04 0.07 0.09 0.10 0.16 0.25 0.34 0.27 0.57 0.71 0.39 0.07 0.07 0.07 0.04 0.05 0.06 0.22 0.23 0.22 0.29 0.29 0.66 0.66 0.37 0.13 0.09 0.14 0.14 0.08 0.14 0.25 0.31 0.16 0.13 0.10 0.03 0.01 0.03 0.07 0.05 0.02
0.05 0.05 0.05 0.05 0.05 0.06 0.05 0.04 0.04 0.03 0.04 0.05 0.05 0.07 0.14 0.15 0.19 0.16 0.16 0.18 0.24 0.58 0.38 0.06 0.02 0.04 0.05 0.07 0.12 0.18 0.28 0.33 0.42 0.61 0.65 0.35 0.12 0.13 0.12 0.14 0.09 0.06 0.10 0.15 0.10 0.03 0.05 0.05 0.06 0.04 0.03 0.04 0.08 0.06
0.06 0.06 0.06 0.05 0.04 0.05 0.05 0.05 0.04 0.03 0.03 0.04 0.04 0.07 0.23 0.27 0.16 0.22 0.17 0.07 0.20 0.49 0.78 0.20 0.03 0.01 0.02 0.04 0.08 0.15 0.23 0.35 0.44 0.49 0.35 0.15 0.10 0.19 0.27 0.13 0.06 0.02 0.02 0.02 0.02 0.00 0.00 0.00 0.00 0.02 0.05 0.03 0.05 0.08
0.05 0.05 0.05 0.05 0.05 0.05 0.05 0.05 0.04 0.02 0.02 0.01 0.02 0.02 0.09 0.23 0.23 0.28 0.19 0.19 0.34 0.64 0.68 0.18 0.05 0.03 0.03 0.01 0.04 0.08 0.16 0.25 0.28 0.35 0.24 0.10 0.10 0.26 0.27 0.05 0.03 0.05 0.04 0.02 0.02 0.05 0.03 0.01 0.00 0.00 0.00 0.02 0.06 0.08
0.05 0.04 0.05 0.05 0.05 0.05 0.04 0.04 0.02 0.01 0.01 0.01 0.01 0.02 0.02 0.05 0.12 0.15 0.10 0.16 0.35 0.61 0.46 0.25 0.08 0.11 0.02 0.02 0.06 0.12 0.31 0.44 0.42 0.27 0.18 0.11 0.13 0.30 0.27 0.02 0.01 0.09 0.12 0.11 0.09 0.05 0.06 0.05 0.03 0.02 0.01 0.01 0.02 0.03
0.04 0.04 0.04 0.04 0.05 0.04 0.04 0.03 0.02 0.01 0.01 0.01 0.01 0.00 0.01 0.04 0.04 0.03 0.02 0.12 0.26 0.63 0.69 0.29 0.10 0.16 0.07 0.09 0.12 0.19 0.31 0.43 0.37 0.34 0.21 0.25 0.21 0.21 0.04 0.02 0.06 0.04 0.11 0.19 0.15 0.14 0.13 0.11 0.10 0.07 0.05 0.05 0.07 0.05
0.04 0.04 0.05 0.04 0.04 0.03 0.03 0.03 0.02 0.02 0.01 0.00 0.00 0.02 0.05 0.05 0.01 0.02 0.06 0.12 0.28 0.52 0.50 0.18 0.07 0.19 0.19 0.28 0.41 0.34 0.39 0.27 0.33 0.20 0.22 0.26 0.08 0.01 0.02 0.02 0.02 0.01 0.01 0.07 0.17 0.23 0.23 0.15 0.14 0.09 0.06 0.05 0.06 0.07
0.04 0.04 0.04 0.04 0.04 0.04 0.04 0.03 0.04 0.03 0.00 0.01 0.05 0.05 0.03 0.01 0.02 0.09 0.11 0.12 0.15 0.18 0.09 0.03 0.02 0.05 0.08 0.18 0.29 0.27 0.26 0.23 0.25 0.14 0.26 0.25 0.14 0.16 0.12 0.06 0.00 0.01 0.01 0.00 0.02 0.04 0.06 0.07 0.05 0.07 0.05 0.04 0.03 0.05
0.04 0.04 0.04 0.04 0.04 0.04 0.03 0.04 0.04 0.04 0.04 0.03 0.03 0.04 0.02 0.03 0.09 0.14 0.10 0.06 0.07 0.08 0.12 0.08 0.10 0.09 0.15 0.12 0.21 0.20 0.21 0.22 0.16 0.15 0.25 0.16 0.15 0.02 0.01 0.01 0.01 0.02 0.02 0.02 0.01 0.01 0.02 0.02 0.03 0.08 0.10 0.11 0.09 0.06
0.04 0.04 0.04 0.04 0.04 0.04 0.04 0.04 0.04 0.02 0.01 0.02 0.14 0.12 0.08 0.05 0.10 0.09 0.12 0.16 0.08 0.08 0.14 0.15 0.14 0.11 0.11 0.13 0.19 0.18 0.19 0.10 0.11 0.15 0.13 0.19 0.13 0.04 0.05 0.07 0.01 0.01 0.02 0.07 0.08 0.05 0.06 0.04 0.05 0.17 0.28 0.34 0.36 0.30
0.04 0.04 0.04 0.03 0.04 0.04 0.03 0.03 0.01 0.03 0.04 0.08 0.12 0.07 0.04 0.03 0.01 0.01 0.03 0.10 0.14 0.09 0.11 0.17 0.15 0.12 0.13 0.25 0.17 0.11 0.07 0.09 0.11 0.10 0.23 0.16 0.08 0.04 0.13 0.23 0.19 0.11 0.06 0.14 0.24 0.14 0.12 0.13 0.09 0.18 0.36 0.44 0.48 0.50
0.04 0.04 0.03 0.03 0.06 0.05 0.03 0.03 0.02 0.04 0.06 0.08 0.07 0.05 0.00 0.00 0.00 0.01 0.03 0.04 0.08 0.08 0.07 0.08 0.08 0.09 0.10 0.13 0.11 0.12 0.10 0.06 0.15 0.28 0.14 0.03 0.05 0.07 0.17 0.23 0.31 0.45 0.35 0.30 0.44 0.44 0.37 0.37 0.39 0.48 0.51 0.48 0.47 0.46
0.05 0.03 0.01 0.04 0.02 0.01 0.03 0.05 0.07 0.11 0.12 0.04 0.03 0.01 0.01 0.10 0.05 0.05 0.05 0.05 0.05 0.06 0.06 0.11 0.17 0.20 0.12 0.09 0.11 0.11 0.15 0.22 0.21 0.08 0.04 0.04 0.04 0.06 0.09 0.13 0.15 0.26 0.36 0.39 0.38 0.50 0.55 0.60 0.71 0.83 0.82 0.70 0.60 0.51
0.07 0.04 0.01 0.02 0.03 0.03 0.04 0.08 0.14 0.26 0.08 0.03 0.01 0.00 0.03 0.14 0.07 0.08 0.12 0.11 0.11 0.11 0.11 0.16 0.16 0.13 0.14 0.15 0.21 0.22 0.24 0.15 0.08 0.05 0.05 0.05 0.11 0.10 0.05 0.04 0.10 0.09 0.18 0.29 0.33 0.44 0.57 0.72 0.71 0.61 0.56 0.57 0.47 0.46
0.07 0.02 0.03 0.05 0.07 0.08 0.06 0.11 0.13 0.09 0.08 0.01 0.01 0.01 0.02 0.04 0.14 0.12 0.04 0.05 0.09 0.15 0.14 0.21 0.21 0.19 0.17 0.16 0.23 0.17 0.07 0.04 0.05 0.08 0.06 0.05 0.06 0.09 0.04 0.06 0.10 0.18 0.19 0.33 0.40 0.45 0.49 0.41 0.31 0.43 0.48 0.49 0.44 0.49
0.07 0.05 0.05 0.07 0.16 0.28 0.15 0.10 0.10 0.08 0.01 0.00 0.00 0.01 0.03 0.06 0.08 0.04 0.05 0.06 0.09 0.10 0.25 0.21 0.11 0.07 0.14 0.18 0.15 0.08 0.06 0.06 0.06 0.11 0.12 0.11 0.09 0.07 0.08 0.16 0.17 0.31 0.30 0.39 0.35 0.33 0.35 0.32 0.29 0.30 0.36 0.30 0.24 0.30
0.04 0.03 0.02 0.03 0.16 0.37 0.16 0.05 0.10 0.07 0.02 0.01 0.01 0.02 0.03 0.06 0.11 0.07 0.03 0.04 0.07 0.06 0.11 0.12 0.11 0.11 0.14 0.15 0.20 0.12 0.09 0.07 0.06 0.08 0.09 0.15 0.17 0.14 0.06 0.22 0.27 0.25 0.29 0.31 0.34 0.41 0.42 0.35 0.31 0.16 0.08 0.12 0.17 0.21
0.05 0.01 0.03 0.08 0.18 0.24 0.16 0.08 0.09 0.03 0.02 0.02 0.01 0.03 0.08 0.10 0.12 0.09 0.04 0.01 0.05 0.05 0.06 0.08 0.11 0.11 0.16 0.20 0.18 0.11 0.08 0.07 0.06 0.10 0.09 0.09 0.06 0.04 0.04 0.05 0.06 0.04 0.06 0.12 0.20 0.35 0.28 0.11 0.03 0.00 0.01 0.02 0.07 0.14
0.09 0.06 0.16 0.15 0.28 0.23 0.16 0.02 0.03 0.06 0.07 0.04 0.04 0.06 0.09 0.11 0.10 0.10 0.06 0.05 0.07 0.06 0.06 0.09 0.11 0.14 0.16 0.20 0.17 0.14 0.14 0.10 0.07 0.05 0.05 0.04 0.03 0.03 0.06 0.05 0.04 0.02 0.02 0.04 0.07 0.20 0.15 0.02 0.01 0.00 0.01 0.01 0.01 0.02
0.16 0.16 0.24 0.21 0.27 0.17 0.06 0.02 0.05 0.03 0.05 0.03 0.03 0.06 0.08 0.08 0.08 0.05 0.09 0.05 0.05 0.04 0.06 0.07 0.11 0.16 0.18 0.21 0.20 0.13 0.12 0.13 0.14 0.15 0.09 0.07 0.06 0.06 0.05 0.09 0.04 0.01 0.02 0.03 0.05 0.12 0.13 0.04 0.01 0.01 0.01 0.01 0.01 0.02
0.25 0.33 0.27 0.19 0.15 0.11 0.04 0.03 0.05 0.06 0.06 0.06 0.07 0.10 0.09 0.12 0.04 0.02 0.02 0.03 0.03 0.01 0.02 0.04 0.03 0.06 0.11 0.16 0.22 0.23 0.21 0.18 0.19 0.18 0.14 0.13 0.09 0.08 0.07 0.11 0.03 0.02 0.04 0.06 0.05 0.08 0.13 0.10 0.05 0.02 0.01 0.02 0.02 0.02
0.49 0.24 0.14 0.13 0.10 0.11 0.07 0.03 0.03 0.05 0.07 0.05 0.08 0.11 0.08 0.03 0.05 0.03 0.02 0.04 0.01 0.00 0.01 0.01 0.03 0.03 0.06 0.09 0.14 0.19 0.23 0.24 0.26 0.27 0.22 0.17 0.14 0.14 0.13 0.14 0.11 0.06 0.04 0.05 0.08 0.10 0.12 0.15 0.15 0.09 0.04 0.01 0.02 0.02
0.29 0.10 0.07 0.05 0.06 0.05 0.06 0.05 0.03 0.02 0.04 0.05 0.09 0.09 0.06 0.06 0.05 0.03 0.04 0.02 0.01 0.01 0.01 0.02 0.01 0.01 0.02 0.02 0.03 0.05 0.08 0.14 0.19 0.22 0.27 0.26 0.26 0.26 0.25 0.20 0.18 0.15 0.11 0.10 0.09 0.09 0.10 0.10 0.11 0.14 0.13 0.05 0.03 0.03
0.15 0.10 0.04 0.02 0.05 0.05 0.05 0.06 0.06 0.06 0.07 0.06 0.06 0.03 0.03 0.03 0.03 0.03 0.02 0.01 0.01 0.01 0.01 0.01 0.01 0.02 0.02 0.01 0.01 0.02 0.01 0.02 0.05 0.14 0.22 0.24 0.27 0.32 0.34 0.32 0.28 0.23 0.19 0.15 0.12 0.09 0.08 0.08 0.09 0.09 0.12 0.11 0.08 0.05
0.06 0.05 0.04 0.03 0.04 0.04 0.05 0.04 0.04 0.02 0.04 0.04 0.06 0.05 0.03 0.02 0.03 0.02 0.01 0.02 0.00 0.00 0.00 0.00 0.00 0.00 0.00 0.00 0.01 0.01 0.01 0.01 0.02 0.02 0.04 0.12 0.16 0.24 0.29 0.31 0.31 0.28 0.31 0.33 0.29 0.21 0.13 0.07 0.06 0.07 0.09 0.10 0.09 0.06
0.10 0.05 0.06 0.08 0.08 0.07 0.07 0.06 0.05 0.03 0.01 0.00 0.02 0.03 0.02 0.02 0.04 0.03 0.01 0.00 0.00 0.00 0.00 0.00 0.01 0.00 0.01 0.00 0.00 0.00 0.00 0.00 0.00 0.00 0.01 0.05 0.04 0.07 0.14 0.19 0.19 0.20 0.26 0.33 0.37 0.35 0.28 0.18 0.10 0.07 0.07 0.10 0.09 0.05
0.05 0.08 0.12 0.09 0.06 0.06 0.06 0.02 0.03 0.00 0.00 0.00 0.00 0.00 0.01 0.03 0.04 0.04 0.01 0.01 0.01 0.01 0.01 0.00 0.01 0.01 0.00 0.01 0.00 0.00 0.00 0.00 0.00 0.00 0.00 0.01 0.04 0.05 0.05 0.08 0.11 0.12 0.15 0.20 0.28 0.34 0.37 0.37 0.35 0.29 0.20 0.14 0.10 0.07
0.06 0.08 0.12 0.08 0.05 0.05 0.02 0.01 0.01 0.00 0.00 0.00 0.01 0.02 0.02 0.03 0.04 0.04 0.04 0.04 0.03 0.01 0.00 0.00 0.00 0.00 0.00 0.00 0.01 0.01 0.01 0.01 0.00 0.00 0.00 0.01 0.01 0.00 0.01 0.02 0.03 0.05 0.06 0.09 0.14 0.23 0.35 0.39 0.36 0.31 0.27 0.20 0.13 0.08
0.07 0.09 0.04 0.03 0.04 0.03 0.02 0.03 0.02 0.01 0.00 0.01 0.01 0.01 0.01 0.02 0.03 0.03 0.04 0.03 0.01 0.01 0.01 0.01 0.01 0.01 0.00 0.00 0.00 0.00 0.00 0.00 0.00 0.00 0.00 0.00 0.00 0.00 0.00 0.00 0.00 0.00 0.01 0.02 0.05 0.11 0.16 0.27 0.33 0.33 0.32 0.31 0.27 0.20
0.06 0.06 0.02 0.02 0.03 0.03 0.02 0.03 0.02 0.01 0.02 0.03 0.03 0.01 0.02 0.02 0.04 0.05 0.03 0.03 0.04 0.03 0.01 0.02 0.01 0.00 0.00 0.00 0.00 0.00 0.00 0.01 0.00 0.00 0.00 0.00 0.00 0.00 0.00 0.00 0.00 0.00 0.00 0.00 0.00 0.02 0.06 0.12 0.21 0.28 0.31 0.32 0.36 0.36

GFSWCAN_prec_precacc24_249.txt.gz
Total_Precipitation_Accumulation
0.05 0.04 0.05 0.06 0.08 0.08 0.07 0.06 0.05 0.05 0.05 0.05 0.06 0.06 0.06 0.08 0.13 0.25 0.24 0.18 0.55 0.81 0.25 0.03 0.03 0.09 0.13 0.27 0.51 0.27 0.56 0.54 0.61 0.78 0.50 0.32 0.19 0.20 0.07 0.02 0.02 0.06 0.12 0.13 0.16 0.27 0.16 0.01 0.01 0.04 0.04 0.01 0.00 0.00
0.07 0.07 0.06 0.06 0.07 0.06 0.05 0.05 0.05 0.05 0.07 0.07 0.06 0.05 0.05 0.08 0.14 0.28 0.33 0.10 0.30 1.01 0.53 0.03 0.02 0.01 0.04 0.08 0.32 0.49 0.51 0.21 0.46 0.57 0.47 0.45 0.34 0.24 0.15 0.16 0.10 0.15 0.16 0.14 0.10 0.07 0.03 0.05 0.03 0.02 0.01 0.00 0.00 0.00
0.05 0.05 0.06 0.06 0.06 0.05 0.04 0.04 0.05 0.05 0.06 0.05 0.05 0.05 0.06 0.07 0.13 0.30 0.41 0.26 0.53 0.74 0.33 0.07 0.04 0.01 0.02 0.03 0.12 0.78 0.32 0.09 0.12 0.11 0.37 0.33 0.22 0.09 0.09 0.06 0.06 0.07 0.11 0.28 0.23 0.09 0.10 0.10 0.06 0.05 0.08 0.03 0.00 0.00
0.06 0.06 0.06 0.05 0.04 0.05 0.06 0.06 0.06 0.05 0.05 0.04 0.04 0.05 0.05 0.09 0.13 0.23 0.33 0.27 0.60 0.76 0.43 0.03 0.04 0.05 0.04 0.05 0.06 0.22 0.23 0.23 0.30 0.33 0.85 0.66 0.28 0.10 0.07 0.05 0.04 0.03 0.04 0.06 0.09 0.02 0.03 0.03 0.03 0.01 0.03 0.08 0.05 0.02
0.05 0.06 0.06 0.06 0.06 0.06 0.05 0.05 0.04 0.03 0.03 0.04 0.05 0.05 0.07 0.13 0.16 0.18 0.16 0.18 0.24 0.61 0.38 0.05 0.02 0.04 0.05 0.07 0.12 0.18 0.27 0.33 0.47 0.84 0.80 0.35 0.07 0.10 0.06 0.06 0.02 0.01 0.02 0.06 0.04 0.03 0.04 0.01 0.01 0.01 0.03 0.04 0.08 0.05
0.04 0.05 0.05 0.05 0.05 0.05 0.05 0.05 0.05 0.04 0.04 0.03 0.03 0.03 0.05 0.12 0.16 0.22 0.17 0.08 0.22 0.49 0.85 0.21 0.02 0.01 0.02 0.04 0.08 0.15 0.23 0.34 0.52 0.68 0.44 0.17 0.06 0.22 0.28 0.05 0.00 0.00 0.00 0.00 0.01 0.00 0.00 0.00 0.00 0.00 0.04 0.03 0.05 0.07
0.04 0.03 0.03 0.04 0.04 0.05 0.06 0.06 0.05 0.04 0.03 0.02 0.02 0.03 0.04 0.11 0.21 0.28 0.19 0.20 0.35 0.72 0.79 0.21 0.05 0.03 0.03 0.01 0.03 0.06 0.12 0.20 0.27 0.37 0.23 0.10 0.07 0.24 0.26 0.04 0.00 0.00 0.00 0.00 0.00 0.00 0.00 0.00 0.00 0.00 0.00 0.02 0.06 0.08
0.03 0.03 0.03 0.04 0.04 0.04 0.04 0.04 0.03 0.02 0.02 0.02 0.02 0.02 0.04 0.08 0.12 0.14 0.08 0.12 0.31 0.63 0.50 0.25 0.07 0.10 0.02 0.02 0.03 0.04 0.11 0.17 0.23 0.16 0.10 0.05 0.09 0.25 0.18 0.00 0.00 0.03 0.04 0.02 0.00 0.00 0.00 0.00 0.00 0.00 0.00 0.00 0.00 0.02
0.03 0.03 0.04 0.04 0.04 0.04 0.03 0.03 0.02 0.02 0.02 0.02 0.01 0.01 0.03 0.06 0.05 0.03 0.01 0.05 0.16 0.41 0.56 0.26 0.09 0.16 0.08 0.12 0.12 0.17 0.22 0.26 0.16 0.13 0.03 0.07 0.10 0.15 0.02 0.03 0.07 0.07 0.05 0.02 0.01 0.04 0.02 0.00 0.01 0.00 0.00 0.00 0.02 0.01
0.04 0.04 0.03 0.03 0.03 0.03 0.03 0.04 0.02 0.02 0.02 0.03 0.01 0.02 0.05 0.05 0.02 0.03 0.09 0.17 0.38 0.53 0.51 0.17 0.07 0.19 0.18 0.26 0.38 0.42 0.47 0.23 0.24 0.08 0.07 0.12 0.03 0.01 0.03 0.05 0.04 0.02 0.03 0.01 0.01 0.02 0.01 0.00 0.00 0.00 0.00 0.01 0.02 0.03
0.05 0.04 0.03 0.03 0.03 0.04 0.04 0.04 0.04 0.03 0.00 0.02 0.08 0.09 0.02 0.02 0.03 0.09 0.13 0.16 0.18 0.25 0.14 0.04 0.02 0.05 0.08 0.15 0.23 0.23 0.22 0.16 0.19 0.08 0.16 0.16 0.14 0.27 0.28 0.21 0.13 0.07 0.02 0.00 0.00 0.00 0.01 0.01 0.01 0.01 0.02 0.02 0.02 0.05
0.05 0.05 0.03 0.04 0.04 0.05 0.04 0.05 0.04 0.05 0.05 0.12 0.12 0.07 0.02 0.03 0.09 0.13 0.11 0.07 0.09 0.08 0.12 0.08 0.11 0.13 0.17 0.15 0.26 0.24 0.20 0.17 0.14 0.15 0.22 0.11 0.16 0.02 0.00 0.00 0.00 0.00 0.00 0.01 0.01 0.01 0.01 0.01 0.02 0.07 0.08 0.10 0.09 0.06
0.04 0.05 0.04 0.04 0.05 0.04 0.05 0.05 0.05 0.03 0.01 0.03 0.14 0.12 0.08 0.05 0.10 0.09 0.07 0.13 0.07 0.08 0.15 0.17 0.19 0.15 0.16 0.22 0.40 0.38 0.36 0.15 0.11 0.13 0.09 0.18 0.12 0.01 0.00 0.00 0.00 0.00 0.01 0.05 0.04 0.04 0.05 0.04 0.05 0.17 0.27 0.33 0.35 0.30
0.04 0.04 0.04 0.03 0.04 0.05 0.05 0.06 0.04 0.03 0.05 0.09 0.14 0.09 0.05 0.03 0.01 0.00 0.03 0.09 0.12 0.09 0.11 0.19 0.25 0.26 0.25 0.39 0.28 0.13 0.07 0.09 0.09 0.06 0.17 0.16 0.04 0.01 0.06 0.09 0.11 0.09 0.05 0.12 0.22 0.13 0.11 0.12 0.08 0.17 0.36 0.43 0.48 0.50
0.05 0.05 0.04 0.03 0.05 0.05 0.04 0.04 0.05 0.05 0.09 0.09 0.10 0.07 0.00 0.00 0.00 0.01 0.03 0.04 0.08 0.09 0.07 0.09 0.09 0.09 0.11 0.14 0.12 0.13 0.11 0.07 0.12 0.23 0.13 0.02 0.03 0.04 0.12 0.11 0.21 0.33 0.24 0.22 0.39 0.40 0.35 0.35 0.38 0.46 0.50 0.48 0.47 0.46
0.06 0.06 0.01 0.03 0.03 0.02 0.03 0.05 0.12 0.17 0.16 0.04 0.03 0.02 0.00 0.01 0.03 0.05 0.05 0.05 0.04 0.04 0.06 0.12 0.17 0.20 0.14 0.11 0.12 0.10 0.14 0.21 0.20 0.06 0.04 0.03 0.04 0.05 0.07 0.09 0.11 0.20 0.28 0.31 0.30 0.45 0.53 0.59 0.70 0.82 0.82 0.70 0.60 0.51
0.13 0.08 0.02 0.03 0.03 0.04 0.04 0.08 0.18 0.48 0.18 0.05 0.01 0.00 0.00 0.01 0.03 0.06 0.09 0.10 0.10 0.10 0.12 0.18 0.19 0.14 0.14 0.15 0.20 0.21 0.21 0.13 0.07 0.04 0.05 0.05 0.10 0.07 0.03 0.02 0.09 0.09 0.18 0.28 0.30 0.38 0.54 0.71 0.71 0.61 0.56 0.57 0.47 0.46
0.14 0.02 0.05 0.06 0.07 0.08 0.06 0.12 0.14 0.12 0.13 0.02 0.01 0.01 0.02 0.03 0.04 0.06 0.04 0.05 0.07 0.13 0.16 0.24 0.25 0.23 0.19 0.15 0.18 0.10 0.06 0.05 0.06 0.07 0.06 0.05 0.06 0.06 0.03 0.03 0.08 0.16 0.18 0.29 0.38 0.44 0.49 0.41 0.31 0.43 0.48 0.49 0.44 0.49
0.13 0.10 0.08 0.10 0.16 0.28 0.15 0.11 0.12 0.09 0.01 0.00 0.00 0.01 0.02 0.05 0.08 0.04 0.05 0.06 0.10 0.10 0.21 0.22 0.15 0.08 0.08 0.05 0.04 0.02 0.03 0.05 0.04 0.04 0.05 0.06 0.07 0.06 0.06 0.05 0.09 0.25 0.25 0.29 0.31 0.29 0.35 0.31 0.30 0.31 0.37 0.31 0.24 0.30
0.14 0.13 0.10 0.11 0.21 0.37 0.16 0.05 0.12 0.10 0.03 0.01 0.01 0.02 0.03 0.05 0.11 0.07 0.03 0.04 0.08 0.10 0.16 0.15 0.11 0.06 0.04 0.03 0.05 0.05 0.06 0.06 0.05 0.04 0.03 0.06 0.12 0.13 0.05 0.19 0.24 0.23 0.28 0.27 0.31 0.36 0.41 0.35 0.31 0.16 0.09 0.13 0.18 0.22
0.11 0.03 0.10 0.16 0.25 0.28 0.18 0.08 0.10 0.04 0.03 0.02 0.01 0.03 0.08 0.10 0.11 0.08 0.04 0.02 0.08 0.10 0.07 0.02 0.03 0.04 0.07 0.05 0.05 0.06 0.06 0.05 0.05 0.10 0.08 0.07 0.05 0.03 0.04 0.05 0.07 0.06 0.07 0.13 0.20 0.35 0.28 0.12 0.04 0.01 0.01 0.03 0.08 0.15
0.13 0.08 0.18 0.18 0.31 0.26 0.21 0.03 0.03 0.06 0.08 0.04 0.04 0.06 0.10 0.11 0.09 0.07 0.06 0.11 0.09 0.03 0.02 0.02 0.02 0.02 0.02 0.04 0.05 0.06 0.07 0.06 0.06 0.05 0.05 0.04 0.02 0.02 0.06 0.06 0.05 0.02 0.02 0.03 0.07 0.22 0.16 0.03 0.02 0.01 0.01 0.02 0.01 0.02
0.22 0.24 0.28 0.23 0.30 0.20 0.07 0.02 0.05 0.03 0.05 0.03 0.03 0.06 0.08 0.08 0.08 0.07 0.13 0.10 0.05 0.02 0.02 0.01 0.01 0.02 0.03 0.04 0.04 0.03 0.02 0.05 0.07 0.08 0.06 0.06 0.06 0.06 0.05 0.11 0.04 0.01 0.02 0.03 0.06 0.13 0.14 0.05 0.02 0.02 0.02 0.01 0.01 0.02
0.38 0.42 0.32 0.22 0.16 0.11 0.04 0.04 0.07 0.08 0.08 0.07 0.07 0.09 0.09 0.11 0.05 0.05 0.03 0.02 0.01 0.00 0.00 0.00 0.00 0.01 0.02 0.01 0.04 0.04 0.05 0.06 0.08 0.08 0.07 0.07 0.07 0.07 0.08 0.13 0.03 0.02 0.04 0.06 0.05 0.08 0.12 0.10 0.05 0.02 0.02 0.02 0.02 0.02
0.73 0.36 0.16 0.15 0.12 0.12 0.07 0.03 0.03 0.05 0.07 0.06 0.11 0.15 0.10 0.06 0.09 0.09 0.03 0.02 0.00 0.00 0.00 0.00 0.01 0.01 0.04 0.03 0.02 0.04 0.06 0.08 0.10 0.10 0.11 0.10 0.09 0.09 0.09 0.11 0.10 0.05 0.04 0.05 0.07 0.09 0.10 0.14 0.14 0.09 0.04 0.01 0.02 0.02
0.38 0.12 0.08 0.05 0.06 0.05 0.07 0.05 0.03 0.03 0.05 0.06 0.09 0.10 0.09 0.13 0.12 0.08 0.05 0.02 0.01 0.01 0.01 0.01 0.01 0.01 0.03 0.02 0.02 0.02 0.02 0.06 0.09 0.11 0.15 0.15 0.16 0.17 0.18 0.16 0.15 0.11 0.08 0.10 0.10 0.09 0.10 0.10 0.11 0.14 0.12 0.05 0.02 0.03
0.19 0.11 0.04 0.02 0.05 0.05 0.06 0.07 0.07 0.08 0.09 0.07 0.06 0.04 0.05 0.08 0.09 0.08 0.04 0.03 0.01 0.01 0.01 0.01 0.01 0.02 0.02 0.01 0.01 0.01 0.01 0.01 0.02 0.07 0.13 0.15 0.17 0.18 0.20 0.21 0.20 0.17 0.15 0.14 0.12 0.09 0.09 0.08 0.09 0.09 0.12 0.11 0.07 0.05
0.09 0.05 0.04 0.03 0.04 0.04 0.05 0.06 0.10 0.09 0.09 0.10 0.15 0.14 0.09 0.04 0.04 0.02 0.02 0.02 0.00 0.00 0.00 0.00 0.00 0.00 0.00 0.00 0.00 0.00 0.00 0.00 0.01 0.02 0.04 0.09 0.08 0.10 0.13 0.16 0.16 0.15 0.18 0.22 0.20 0.16 0.11 0.08 0.07 0.07 0.10 0.10 0.09 0.06
0.10 0.05 0.06 0.08 0.08 0.07 0.08 0.10 0.09 0.05 0.03 0.04 0.08 0.09 0.07 0.04 0.04 0.03 0.01 0.00 0.00 0.00 0.00 0.00 0.00 0.00 0.00 0.00 0.00 0.00 0.00 0.00 0.00 0.00 0.01 0.03 0.02 0.00 0.02 0.04 0.06 0.08 0.11 0.16 0.22 0.22 0.18 0.13 0.09 0.07 0.08 0.11 0.09 0.07
0.05 0.08 0.12 0.10 0.09 0.09 0.08 0.03 0.05 0.03 0.03 0.04 0.05 0.04 0.02 0.02 0.04 0.04 0.01 0.01 0.01 0.01 0.01 0.00 0.01 0.01 0.00 0.00 0.00 0.00 0.00 0.00 0.00 0.00 0.00 0.00 0.01 0.01 0.00 0.00 0.01 0.02 0.05 0.09 0.16 0.23 0.27 0.28 0.27 0.24 0.17 0.12 0.10 0.08
0.06 0.08 0.12 0.11 0.10 0.09 0.05 0.03 0.02 0.01 0.02 0.02 0.02 0.02 0.01 0.03 0.04 0.04 0.04 0.04 0.03 0.01 0.00 0.00 0.00 0.00 0.00 0.00 0.01 0.01 0.01 0.00 0.00 0.00 0.00 0.00 0.00 0.00 0.00 0.00 0.00 0.00 0.01 0.03 0.08 0.17 0.28 0.33 0.30 0.25 0.21 0.16 0.11 0.09
0.07 0.11 0.11 0.08 0.07 0.05 0.04 0.06 0.06 0.05 0.02 0.02 0.02 0.01 0.01 0.01 0.02 0.03 0.04 0.03 0.02 0.01 0.00 0.00 0.00 0.01 0.00 0.00 0.00 0.00 0.00 0.00 0.00 0.00 0.00 0.00 0.00 0.00 0.00 0.00 0.00 0.00 0.00 0.01 0.03 0.08 0.14 0.23 0.30 0.29 0.28 0.28 0.24 0.20
0.11 0.09 0.08 0.06 0.06 0.06 0.05 0.06 0.04 0.03 0.02 0.03 0.01 0.01 0.01 0.02 0.04 0.04 0.04 0.04 0.04 0.03 0.01 0.02 0.01 0.00 0.00 0.00 0.00 0.00 0.00 0.00 0.00 0.00 0.00 0.00 0.00 0.00 0.00 0.00 0.00 0.00 0.00 0.00 0.00 0.02 0.06 0.11 0.19 0.26 0.29 0.30 0.35 0.37

GFSWCAN_prec_precacc24_252.txt.gz
Total_Precipitation_Accumulation
0.04 0.04 0.04 0.06 0.07 0.07 0.06 0.06 0.05 0.05 0.05 0.05 0.05 0.06 0.06 0.07 0.11 0.20 0.16 0.15 0.45 0.68 0.22 0.02 0.03 0.06 0.10 0.22 0.44 0.20 0.46 0.31 0.40 0.61 0.40 0.29 0.19 0.23 0.08 0.02 0.02 0.06 0.12 0.12 0.12 0.22 0.11 0.01 0.01 0.04 0.09 0.05 0.02 0.00
0.05 0.05 0.05 0.05 0.07 0.06 0.05 0.05 0.04 0.04 0.04 0.05 0.06 0.05 0.05 0.06 0.08 0.17 0.23 0.08 0.23 0.85 0.47 0.02 0.01 0.01 0.02 0.05 0.29 0.45 0.48 0.18 0.46 0.55 0.45 0.45 0.34 0.24 0.15 0.16 0.10 0.17 0.19 0.21 0.11 0.05 0.01 0.03 0.01 0.02 0.03 0.01 0.00 0.00
0.04 0.04 0.05 0.05 0.06 0.05 0.04 0.04 0.04 0.04 0.05 0.05 0.05 0.06 0.06 0.06 0.08 0.17 0.28 0.20 0.47 0.71 0.31 0.03 0.00 0.00 0.01 0.01 0.10 0.74 0.30 0.09 0.12 0.11 0.37 0.34 0.23 0.09 0.10 0.07 0.06 0.07 0.14 0.38 0.25 0.08 0.09 0.08 0.02 0.01 0.02 0.00 0.00 0.00
0.05 0.05 0.05 0.04 0.04 0.05 0.06 0.06 0.06 0.06 0.05 0.04 0.05 0.05 0.05 0.06 0.08 0.17 0.26 0.25 0.59 0.76 0.42 0.02 0.00 0.01 0.02 0.03 0.06 0.22 0.22 0.22 0.30 0.32 0.85 0.66 0.29 0.10 0.07 0.05 0.04 0.03 0.04 0.04 0.05 0.01 0.03 0.03 0.03 0.00 0.00 0.00 0.00 0.00
0.04 0.05 0.05 0.06 0.06 0.06 0.05 0.05 0.04 0.03 0.03 0.04 0.05 0.05 0.06 0.06 0.10 0.15 0.15 0.19 0.26 0.62 0.38 0.05 0.01 0.01 0.03 0.06 0.12 0.18 0.27 0.32 0.45 0.83 0.80 0.35 0.08 0.13 0.07 0.06 0.02 0.01 0.02 0.06 0.02 0.02 0.04 0.01 0.01 0.00 0.00 0.00 0.00 0.00
0.04 0.05 0.04 0.04 0.05 0.05 0.06 0.06 0.06 0.05 0.04 0.04 0.04 0.03 0.04 0.05 0.08 0.19 0.17 0.09 0.23 0.54 0.94 0.22 0.02 0.01 0.02 0.04 0.08 0.15 0.23 0.34 0.53 0.70 0.46 0.18 0.06 0.27 0.31 0.06 0.00 0.00 0.00 0.00 0.01 0.00 0.00 0.00 0.00 0.00 0.00 0.00 0.00 0.00
0.03 0.03 0.02 0.03 0.04 0.05 0.05 0.06 0.06 0.05 0.04 0.03 0.03 0.03 0.04 0.09 0.12 0.26 0.19 0.20 0.35 0.74 0.83 0.22 0.05 0.03 0.03 0.01 0.02 0.06 0.12 0.20 0.27 0.38 0.25 0.11 0.07 0.29 0.30 0.05 0.00 0.00 0.00 0.00 0.01 0.00 0.00 0.00 0.00 0.00 0.00 0.00 0.00 0.00
0.03 0.02 0.02 0.03 0.03 0.04 0.04 0.03 0.03 0.03 0.03 0.03 0.03 0.03 0.05 0.11 0.13 0.13 0.08 0.12 0.29 0.60 0.48 0.24 0.07 0.10 0.02 0.01 0.04 0.05 0.11 0.16 0.21 0.15 0.09 0.05 0.09 0.26 0.19 0.00 0.00 0.03 0.04 0.03 0.02 0.00 0.00 0.00 0.00 0.00 0.00 0.00 0.00 0.01
0.04 0.04 0.03 0.03 0.04 0.03 0.03 0.03 0.02 0.02 0.02 0.03 0.03 0.03 0.03 0.06 0.05 0.03 0.01 0.05 0.15 0.33 0.47 0.24 0.09 0.16 0.08 0.11 0.12 0.16 0.20 0.28 0.20 0.17 0.03 0.08 0.09 0.13 0.02 0.03 0.07 0.07 0.05 0.03 0.01 0.04 0.06 0.05 0.01 0.00 0.00 0.00 0.02 0.01
0.04 0.04 0.03 0.03 0.03 0.03 0.03 0.03 0.03 0.02 0.02 0.04 0.02 0.02 0.05 0.05 0.02 0.03 0.12 0.24 0.45 0.51 0.47 0.15 0.05 0.16 0.16 0.24 0.35 0.41 0.44 0.22 0.21 0.07 0.05 0.09 0.02 0.01 0.03 0.05 0.04 0.02 0.03 0.02 0.01 0.02 0.01 0.00 0.00 0.00 0.00 0.00 0.02 0.02
0.05 0.04 0.03 0.03 0.03 0.04 0.04 0.04 0.04 0.03 0.01 0.02 0.09 0.09 0.02 0.02 0.07 0.15 0.16 0.23 0.19 0.26 0.14 0.03 0.02 0.05 0.08 0.12 0.19 0.19 0.20 0.15 0.16 0.07 0.13 0.15 0.13 0.27 0.28 0.21 0.13 0.07 0.02 0.00 0.00 0.00 0.00 0.00 0.00 0.00 0.00 0.00 0.01 0.02
0.05 0.05 0.04 0.05 0.04 0.04 0.04 0.04 0.05 0.05 0.05 0.15 0.15 0.09 0.03 0.05 0.12 0.14 0.11 0.08 0.09 0.08 0.12 0.08 0.11 0.13 0.17 0.15 0.24 0.21 0.18 0.15 0.12 0.14 0.22 0.11 0.16 0.02 0.00 0.00 0.00 0.00 0.00 0.00 0.00 0.00 0.00 0.00 0.00 0.01 0.04 0.04 0.06 0.02
0.05 0.05 0.04 0.05 0.04 0.04 0.05 0.05 0.07 0.04 0.02 0.03 0.15 0.13 0.09 0.06 0.13 0.10 0.05 0.09 0.07 0.08 0.15 0.17 0.21 0.18 0.17 0.25 0.45 0.43 0.38 0.15 0.13 0.14 0.09 0.18 0.12 0.00 0.00 0.00 0.00 0.00 0.00 0.02 0.02 0.01 0.01 0.01 0.01 0.06 0.20 0.24 0.27 0.24
0.05 0.05 0.04 0.04 0.05 0.05 0.05 0.06 0.07 0.09 0.07 0.11 0.16 0.11 0.05 0.03 0.01 0.00 0.02 0.09 0.12 0.09 0.12 0.20 0.26 0.26 0.25 0.34 0.30 0.24 0.15 0.13 0.10 0.06 0.17 0.16 0.02 0.00 0.03 0.02 0.01 0.02 0.03 0.06 0.07 0.02 0.01 0.02 0.03 0.07 0.31 0.41 0.45 0.49
0.05 0.05 0.03 0.03 0.06 0.06 0.05 0.04 0.06 0.10 0.10 0.11 0.10 0.07 0.00 0.00 0.00 0.01 0.03 0.04 0.08 0.09 0.07 0.09 0.08 0.09 0.12 0.14 0.12 0.14 0.12 0.07 0.12 0.21 0.11 0.01 0.00 0.03 0.07 0.02 0.02 0.06 0.07 0.10 0.26 0.25 0.21 0.21 0.26 0.35 0.46 0.48 0.47 0.45
0.06 0.05 0.01 0.03 0.03 0.04 0.04 0.05 0.13 0.24 0.22 0.07 0.04 0.02 0.00 0.01 0.02 0.04 0.05 0.05 0.04 0.04 0.06 0.11 0.18 0.21 0.14 0.11 0.12 0.09 0.12 0.17 0.18 0.04 0.02 0.01 0.01 0.02 0.04 0.03 0.04 0.06 0.07 0.09 0.14 0.28 0.32 0.45 0.61 0.75 0.79 0.68 0.59 0.50
0.12 0.08 0.02 0.04 0.05 0.06 0.07 0.09 0.20 0.60 0.32 0.08 0.01 0.00 0.00 0.01 0.02 0.05 0.08 0.10 0.10 0.10 0.11 0.18 0.19 0.13 0.14 0.15 0.18 0.18 0.16 0.12 0.06 0.02 0.02 0.02 0.05 0.05 0.03 0.02 0.06 0.06 0.10 0.14 0.14 0.21 0.34 0.52 0.60 0.56 0.55 0.57 0.47 0.46
0.14 0.03 0.06 0.07 0.08 0.14 0.09 0.13 0.15 0.12 0.16 0.06 0.03 0.01 0.02 0.03 0.03 0.03 0.04 0.05 0.07 0.12 0.15 0.23 0.23 0.22 0.19 0.14 0.16 0.05 0.04 0.03 0.05 0.05 0.03 0.03 0.04 0.04 0.03 0.02 0.07 0.14 0.16 0.25 0.29 0.33 0.40 0.35 0.29 0.43 0.48 0.49 0.44 0.49
0.13 0.10 0.08 0.10 0.20 0.38 0.17 0.12 0.13 0.09 0.01 0.00 0.00 0.01 0.02 0.04 0.06 0.04 0.05 0.06 0.10 0.10 0.20 0.20 0.15 0.08 0.08 0.05 0.03 0.01 0.01 0.03 0.02 0.01 0.02 0.04 0.06 0.04 0.04 0.02 0.06 0.20 0.18 0.24 0.28 0.25 0.28 0.27 0.28 0.29 0.37 0.31 0.24 0.31
0.14 0.14 0.11 0.14 0.35 0.53 0.20 0.05 0.12 0.10 0.03 0.01 0.01 0.02 0.03 0.05 0.08 0.06 0.03 0.04 0.08 0.11 0.16 0.15 0.07 0.04 0.03 0.02 0.03 0.03 0.02 0.02 0.03 0.03 0.02 0.03 0.04 0.05 0.01 0.04 0.08 0.10 0.15 0.13 0.21 0.28 0.28 0.26 0.27 0.16 0.09 0.14 0.19 0.22
0.11 0.04 0.11 0.21 0.48 0.47 0.21 0.08 0.10 0.04 0.03 0.03 0.01 0.03 0.08 0.09 0.09 0.06 0.04 0.02 0.08 0.10 0.07 0.02 0.02 0.01 0.01 0.02 0.02 0.02 0.02 0.03 0.03 0.06 0.07 0.05 0.02 0.02 0.02 0.03 0.03 0.04 0.05 0.09 0.16 0.27 0.21 0.09 0.04 0.01 0.02 0.03 0.08 0.15
0.13 0.10 0.22 0.25 0.44 0.36 0.25 0.03 0.03 0.06 0.08 0.05 0.04 0.06 0.10 0.11 0.09 0.07 0.06 0.11 0.09 0.03 0.01 0.01 0.01 0.01 0.01 0.03 0.04 0.04 0.04 0.03 0.03 0.03 0.03 0.03 0.02 0.02 0.05 0.06 0.05 0.01 0.02 0.03 0.07 0.21 0.15 0.03 0.02 0.01 0.02 0.02 0.02 0.03
0.27 0.29 0.37 0.29 0.34 0.24 0.09 0.02 0.05 0.04 0.05 0.03 0.03 0.06 0.08 0.07 0.08 0.07 0.12 0.10 0.05 0.01 0.01 0.01 0.01 0.01 0.02 0.02 0.03 0.03 0.02 0.03 0.04 0.04 0.02 0.03 0.04 0.06 0.05 0.11 0.04 0.01 0.02 0.03 0.06 0.13 0.14 0.05 0.02 0.01 0.01 0.01 0.01 0.01
0.46 0.50 0.41 0.29 0.17 0.11 0.04 0.04 0.07 0.08 0.08 0.07 0.08 0.09 0.09 0.10 0.05 0.05 0.03 0.02 0.01 0.00 0.00 0.00 0.00 0.01 0.03 0.03 0.05 0.05 0.04 0.03 0.05 0.05 0.04 0.04 0.04 0.05 0.07 0.13 0.03 0.02 0.04 0.06 0.05 0.07 0.12 0.10 0.05 0.02 0.01 0.02 0.02 0.02
0.87 0.46 0.19 0.19 0.14 0.12 0.07 0.03 0.03 0.05 0.07 0.06 0.11 0.15 0.10 0.07 0.12 0.12 0.04 0.02 0.00 0.00 0.00 0.01 0.01 0.02 0.06 0.05 0.04 0.03 0.01 0.02 0.04 0.05 0.05 0.06 0.06 0.06 0.06 0.09 0.09 0.05 0.04 0.06 0.07 0.09 0.10 0.14 0.14 0.09 0.04 0.02 0.02 0.03
0.46 0.17 0.11 0.05 0.06 0.05 0.07 0.05 0.03 0.03 0.05 0.06 0.09 0.10 0.09 0.13 0.13 0.09 0.05 0.02 0.01 0.01 0.01 0.01 0.01 0.02 0.03 0.03 0.03 0.02 0.01 0.02 0.04 0.04 0.04 0.06 0.08 0.11 0.13 0.11 0.10 0.08 0.06 0.09 0.10 0.09 0.10 0.09 0.12 0.14 0.12 0.05 0.02 0.03
0.22 0.13 0.05 0.02 0.05 0.05 0.06 0.07 0.07 0.09 0.09 0.07 0.06 0.04 0.05 0.09 0.09 0.08 0.04 0.03 0.01 0.01 0.00 0.01 0.01 0.03 0.02 0.01 0.01 0.00 0.00 0.01 0.01 0.03 0.05 0.06 0.08 0.10 0.13 0.15 0.15 0.14 0.13 0.12 0.10 0.09 0.09 0.08 0.08 0.10 0.12 0.10 0.07 0.05
0.14 0.06 0.04 0.03 0.04 0.04 0.05 0.06 0.11 0.10 0.09 0.10 0.17 0.17 0.15 0.09 0.06 0.04 0.02 0.02 0.00 0.00 0.00 0.00 0.00 0.00 0.00 0.00 0.00 0.00 0.00 0.00 0.01 0.01 0.03 0.08 0.06 0.06 0.09 0.11 0.12 0.12 0.15 0.17 0.17 0.14 0.10 0.08 0.07 0.07 0.10 0.10 0.09 0.06
0.10 0.05 0.06 0.08 0.08 0.07 0.08 0.10 0.10 0.05 0.03 0.04 0.08 0.09 0.10 0.09 0.09 0.08 0.04 0.01 0.00 0.00 0.00 0.00 0.01 0.00 0.00 0.00 0.00 0.00 0.00 0.00 0.00 0.01 0.01 0.04 0.02 0.00 0.01 0.03 0.05 0.07 0.09 0.11 0.15 0.16 0.15 0.11 0.08 0.07 0.08 0.11 0.09 0.07
0.05 0.08 0.12 0.10 0.09 0.09 0.07 0.03 0.05 0.03 0.03 0.04 0.05 0.05 0.05 0.05 0.06 0.07 0.02 0.01 0.01 0.01 0.01 0.00 0.01 0.01 0.00 0.00 0.00 0.00 0.00 0.00 0.00 0.00 0.00 0.00 0.00 0.00 0.00 0.00 0.00 0.01 0.03 0.06 0.10 0.15 0.18 0.20 0.20 0.20 0.16 0.12 0.09 0.08
0.06 0.08 0.12 0.11 0.10 0.08 0.05 0.03 0.02 0.01 0.02 0.02 0.02 0.03 0.02 0.03 0.04 0.04 0.04 0.04 0.03 0.01 0.00 0.00 0.00 0.00 0.00 0.00 0.01 0.01 0.01 0.00 0.00 0.00 0.00 0.00 0.00 0.00 0.00 0.00 0.00 0.00 0.00 0.01 0.04 0.10 0.18 0.23 0.23 0.22 0.19 0.14 0.09 0.08
0.07 0.11 0.11 0.08 0.07 0.05 0.04 0.06 0.06 0.05 0.02 0.03 0.03 0.02 0.02 0.02 0.02 0.02 0.04 0.03 0.02 0.01 0.00 0.00 0.00 0.01 0.00 0.00 0.00 0.00 0.00 0.00 0.00 0.00 0.00 0.00 0.00 0.00 0.00 0.00 0.00 0.00 0.00 0.00 0.01 0.04 0.08 0.17 0.24 0.24 0.24 0.25 0.21 0.16
0.11 0.09 0.08 0.07 0.06 0.06 0.06 0.08 0.05 0.04 0.03 0.04 0.02 0.01 0.01 0.02 0.03 0.04 0.04 0.04 0.04 0.03 0.01 0.02 0.01 0.00 0.00 0.00 0.00 0.00 0.00 0.00 0.00 0.00 0.00 0.00 0.00 0.00 0.00 0.00 0.00 0.00 0.00 0.00 0.00 0.01 0.04 0.08 0.16 0.24 0.27 0.28 0.32 0.34

GFSWCAN_prec_precacc24_255.txt.gz
Total_Precipitation_Accumulation
0.03 0.03 0.03 0.04 0.05 0.06 0.05 0.05 0.04 0.05 0.05 0.04 0.04 0.04 0.06 0.07 0.12 0.19 0.10 0.13 0.35 0.46 0.14 0.02 0.02 0.04 0.06 0.14 0.26 0.10 0.34 0.16 0.21 0.43 0.33 0.24 0.19 0.23 0.08 0.02 0.02 0.06 0.15 0.14 0.14 0.21 0.10 0.01 0.01 0.04 0.09 0.04 0.02 0.03
0.05 0.04 0.03 0.03 0.05 0.04 0.04 0.05 0.04 0.04 0.04 0.05 0.05 0.05 0.06 0.07 0.08 0.16 0.11 0.04 0.16 0.55 0.30 0.02 0.01 0.01 0.01 0.03 0.14 0.28 0.40 0.17 0.45 0.53 0.44 0.45 0.34 0.24 0.15 0.16 0.10 0.17 0.25 0.26 0.21 0.08 0.01 0.03 0.01 0.01 0.03 0.01 0.01 0.05
0.04 0.04 0.04 0.04 0.05 0.03 0.03 0.03 0.03 0.03 0.05 0.05 0.05 0.05 0.06 0.06 0.08 0.15 0.11 0.08 0.30 0.51 0.22 0.03 0.00 0.00 0.00 0.00 0.04 0.54 0.22 0.08 0.11 0.11 0.37 0.33 0.23 0.09 0.10 0.07 0.06 0.07 0.15 0.39 0.26 0.09 0.09 0.08 0.02 0.00 0.01 0.00 0.00 0.03
0.04 0.04 0.04 0.04 0.03 0.03 0.05 0.05 0.05 0.05 0.05 0.04 0.04 0.05 0.05 0.06 0.07 0.12 0.11 0.10 0.41 0.69 0.40 0.02 0.00 0.00 0.00 0.02 0.03 0.11 0.15 0.21 0.29 0.31 0.80 0.61 0.28 0.10 0.07 0.05 0.04 0.03 0.04 0.04 0.05 0.01 0.03 0.03 0.03 0.00 0.00 0.00 0.00 0.00
0.03 0.04 0.04 0.05 0.06 0.05 0.04 0.04 0.03 0.03 0.03 0.04 0.05 0.05 0.05 0.06 0.09 0.09 0.07 0.06 0.14 0.62 0.40 0.05 0.01 0.00 0.01 0.03 0.06 0.12 0.22 0.30 0.43 0.77 0.74 0.31 0.07 0.13 0.07 0.06 0.02 0.01 0.02 0.06 0.02 0.02 0.04 0.01 0.01 0.00 0.00 0.00 0.00 0.00
0.03 0.04 0.04 0.03 0.03 0.04 0.05 0.06 0.05 0.04 0.04 0.04 0.03 0.03 0.04 0.06 0.07 0.11 0.10 0.07 0.23 0.59 1.04 0.23 0.02 0.01 0.01 0.01 0.02 0.08 0.16 0.30 0.51 0.69 0.44 0.16 0.06 0.27 0.31 0.06 0.00 0.00 0.00 0.00 0.01 0.00 0.00 0.00 0.00 0.00 0.00 0.00 0.00 0.00
0.02 0.02 0.02 0.02 0.02 0.03 0.04 0.05 0.05 0.05 0.05 0.04 0.04 0.04 0.05 0.10 0.08 0.12 0.11 0.19 0.33 0.72 0.84 0.22 0.05 0.03 0.03 0.01 0.01 0.04 0.09 0.18 0.26 0.40 0.26 0.11 0.08 0.33 0.33 0.05 0.00 0.00 0.00 0.00 0.01 0.00 0.00 0.00 0.00 0.00 0.00 0.00 0.00 0.00
0.03 0.02 0.02 0.02 0.02 0.02 0.03 0.03 0.02 0.02 0.03 0.03 0.03 0.04 0.05 0.12 0.16 0.15 0.03 0.09 0.27 0.51 0.45 0.20 0.07 0.10 0.02 0.01 0.04 0.05 0.12 0.19 0.24 0.17 0.09 0.05 0.10 0.27 0.20 0.00 0.00 0.03 0.04 0.03 0.02 0.00 0.00 0.00 0.00 0.00 0.00 0.00 0.00 0.00
0.03 0.03 0.03 0.03 0.02 0.02 0.02 0.02 0.02 0.02 0.02 0.03 0.04 0.04 0.04 0.07 0.06 0.03 0.01 0.05 0.14 0.27 0.41 0.22 0.08 0.15 0.07 0.11 0.12 0.18 0.21 0.28 0.21 0.19 0.04 0.09 0.10 0.13 0.02 0.03 0.07 0.07 0.05 0.03 0.01 0.04 0.07 0.06 0.02 0.00 0.00 0.00 0.00 0.00
0.04 0.03 0.03 0.03 0.02 0.02 0.03 0.03 0.02 0.02 0.02 0.04 0.03 0.02 0.05 0.05 0.02 0.03 0.13 0.29 0.54 0.54 0.41 0.12 0.03 0.11 0.14 0.22 0.34 0.40 0.43 0.23 0.21 0.07 0.04 0.08 0.02 0.01 0.03 0.05 0.04 0.02 0.03 0.02 0.01 0.02 0.01 0.00 0.00 0.00 0.00 0.00 0.00 0.00
0.04 0.04 0.03 0.03 0.03 0.03 0.03 0.04 0.03 0.03 0.01 0.02 0.09 0.10 0.02 0.03 0.09 0.16 0.20 0.27 0.21 0.26 0.13 0.03 0.01 0.04 0.07 0.11 0.16 0.16 0.18 0.15 0.16 0.07 0.12 0.14 0.13 0.27 0.28 0.21 0.13 0.07 0.02 0.00 0.00 0.00 0.00 0.00 0.00 0.00 0.00 0.00 0.00 0.01
0.04 0.04 0.05 0.05 0.04 0.04 0.04 0.04 0.05 0.04 0.06 0.16 0.16 0.10 0.04 0.06 0.18 0.18 0.14 0.09 0.09 0.08 0.12 0.08 0.11 0.13 0.17 0.15 0.23 0.19 0.16 0.13 0.11 0.14 0.21 0.11 0.16 0.02 0.00 0.00 0.00 0.00 0.00 0.00 0.00 0.00 0.00 0.00 0.00 0.01 0.01 0.00 0.00 0.01
0.04 0.05 0.05 0.04 0.05 0.05 0.05 0.05 0.08 0.05 0.03 0.03 0.14 0.12 0.09 0.08 0.16 0.13 0.04 0.05 0.07 0.08 0.15 0.17 0.21 0.20 0.19 0.26 0.42 0.40 0.38 0.16 0.14 0.16 0.10 0.18 0.12 0.00 0.00 0.00 0.00 0.00 0.00 0.02 0.02 0.01 0.01 0.01 0.01 0.02 0.03 0.03 0.04 0.07
0.04 0.05 0.05 0.04 0.04 0.06 0.05 0.05 0.07 0.11 0.10 0.10 0.16 0.12 0.05 0.04 0.01 0.00 0.02 0.09 0.12 0.09 0.12 0.22 0.31 0.30 0.28 0.37 0.27 0.26 0.18 0.19 0.16 0.09 0.16 0.16 0.02 0.00 0.00 0.01 0.00 0.00 0.00 0.03 0.03 0.01 0.01 0.02 0.01 0.01 0.04 0.08 0.13 0.19
0.04 0.04 0.04 0.04 0.06 0.06 0.06 0.05 0.07 0.23 0.22 0.11 0.09 0.06 0.00 0.00 0.00 0.01 0.03 0.04 0.08 0.09 0.07 0.09 0.10 0.10 0.12 0.15 0.11 0.14 0.12 0.08 0.10 0.16 0.10 0.01 0.00 0.01 0.01 0.01 0.00 0.01 0.01 0.03 0.05 0.06 0.08 0.12 0.15 0.17 0.19 0.22 0.22 0.25
0.05 0.04 0.01 0.03 0.03 0.04 0.06 0.07 0.14 0.35 0.34 0.09 0.05 0.02 0.00 0.01 0.02 0.04 0.04 0.04 0.04 0.04 0.04 0.09 0.16 0.21 0.16 0.13 0.13 0.10 0.11 0.12 0.14 0.02 0.01 0.01 0.01 0.01 0.02 0.01 0.01 0.03 0.03 0.05 0.05 0.09 0.12 0.16 0.25 0.41 0.51 0.48 0.38 0.32
0.11 0.07 0.03 0.05 0.06 0.07 0.10 0.14 0.20 0.63 0.42 0.14 0.02 0.00 0.00 0.01 0.02 0.05 0.07 0.09 0.10 0.13 0.16 0.20 0.21 0.13 0.14 0.15 0.16 0.13 0.15 0.10 0.04 0.01 0.00 0.01 0.03 0.04 0.02 0.01 0.02 0.04 0.06 0.08 0.05 0.08 0.16 0.26 0.31 0.31 0.33 0.37 0.30 0.33
0.12 0.02 0.06 0.07 0.09 0.15 0.16 0.24 0.20 0.15 0.18 0.09 0.07 0.02 0.02 0.03 0.03 0.03 0.03 0.05 0.07 0.12 0.15 0.23 0.21 0.20 0.18 0.13 0.16 0.04 0.03 0.03 0.04 0.03 0.02 0.01 0.04 0.03 0.02 0.02 0.03 0.08 0.10 0.15 0.18 0.20 0.26 0.23 0.20 0.30 0.37 0.39 0.35 0.41
0.10 0.08 0.08 0.11 0.22 0.40 0.25 0.19 0.16 0.11 0.01 0.00 0.00 0.01 0.02 0.04 0.04 0.04 0.05 0.06 0.08 0.10 0.19 0.20 0.16 0.07 0.07 0.04 0.03 0.01 0.01 0.01 0.01 0.00 0.00 0.03 0.05 0.03 0.02 0.01 0.04 0.11 0.11 0.13 0.18 0.20 0.25 0.24 0.24 0.23 0.27 0.23 0.21 0.28
0.12 0.13 0.12 0.16 0.40 0.66 0.27 0.08 0.13 0.10 0.03 0.01 0.01 0.02 0.03 0.05 0.05 0.04 0.03 0.04 0.07 0.11 0.15 0.15 0.07 0.03 0.02 0.01 0.02 0.02 0.01 0.01 0.01 0.01 0.00 0.02 0.02 0.01 0.01 0.02 0.02 0.05 0.09 0.10 0.14 0.18 0.20 0.16 0.13 0.09 0.07 0.13 0.18 0.22
0.11 0.05 0.13 0.23 0.50 0.54 0.28 0.10 0.10 0.03 0.03 0.03 0.01 0.03 0.08 0.07 0.06 0.05 0.04 0.02 0.09 0.10 0.06 0.02 0.02 0.01 0.01 0.00 0.01 0.01 0.01 0.01 0.01 0.02 0.02 0.02 0.00 0.01 0.01 0.01 0.02 0.03 0.02 0.05 0.10 0.16 0.10 0.05 0.02 0.01 0.02 0.03 0.08 0.15
0.12 0.12 0.24 0.27 0.47 0.42 0.31 0.04 0.04 0.06 0.08 0.05 0.04 0.06 0.09 0.10 0.09 0.07 0.06 0.11 0.09 0.02 0.01 0.01 0.01 0.00 0.00 0.02 0.01 0.01 0.01 0.01 0.01 0.02 0.02 0.02 0.02 0.02 0.04 0.05 0.05 0.01 0.01 0.03 0.07 0.17 0.08 0.02 0.02 0.01 0.02 0.02 0.02 0.03
0.29 0.32 0.41 0.31 0.39 0.30 0.12 0.02 0.05 0.04 0.05 0.03 0.03 0.06 0.07 0.07 0.08 0.07 0.12 0.10 0.05 0.01 0.01 0.01 0.01 0.01 0.02 0.02 0.02 0.02 0.01 0.02 0.04 0.04 0.03 0.03 0.03 0.05 0.05 0.10 0.04 0.01 0.02 0.03 0.06 0.12 0.12 0.04 0.02 0.01 0.01 0.01 0.01 0.01
0.49 0.57 0.45 0.33 0.20 0.13 0.05 0.05 0.07 0.08 0.08 0.07 0.07 0.08 0.08 0.10 0.05 0.06 0.04 0.02 0.01 0.00 0.00 0.00 0.00 0.01 0.03 0.03 0.04 0.04 0.04 0.05 0.08 0.08 0.05 0.03 0.03 0.03 0.06 0.12 0.03 0.02 0.03 0.06 0.05 0.07 0.12 0.10 0.05 0.02 0.01 0.02 0.02 0.02
0.93 0.51 0.25 0.22 0.16 0.13 0.07 0.04 0.03 0.05 0.07 0.06 0.11 0.15 0.10 0.07 0.12 0.12 0.04 0.02 0.00 0.00 0.00 0.01 0.01 0.02 0.06 0.05 0.04 0.03 0.03 0.05 0.06 0.05 0.02 0.02 0.03 0.03 0.04 0.06 0.07 0.03 0.02 0.05 0.06 0.08 0.09 0.12 0.13 0.08 0.04 0.02 0.02 0.02
0.49 0.18 0.14 0.07 0.07 0.05 0.07 0.05 0.03 0.03 0.05 0.06 0.09 0.10 0.09 0.13 0.13 0.09 0.05 0.02 0.01 0.01 0.01 0.01 0.01 0.02 0.04 0.04 0.04 0.03 0.03 0.02 0.02 0.02 0.02 0.02 0.03 0.06 0.07 0.06 0.06 0.05 0.03 0.06 0.08 0.09 0.09 0.09 0.11 0.13 0.11 0.04 0.02 0.03
0.25 0.13 0.06 0.02 0.04 0.05 0.06 0.07 0.07 0.09 0.09 0.07 0.06 0.04 0.06 0.09 0.09 0.08 0.04 0.04 0.02 0.01 0.01 0.01 0.02 0.05 0.04 0.02 0.01 0.00 0.00 0.01 0.01 0.01 0.02 0.02 0.02 0.03 0.06 0.08 0.09 0.08 0.08 0.08 0.08 0.07 0.08 0.08 0.08 0.10 0.12 0.10 0.07 0.05
0.15 0.07 0.04 0.03 0.04 0.04 0.05 0.06 0.11 0.10 0.09 0.10 0.17 0.17 0.16 0.11 0.08 0.05 0.05 0.04 0.02 0.02 0.01 0.01 0.01 0.01 0.01 0.00 0.00 0.00 0.00 0.00 0.01 0.01 0.03 0.06 0.02 0.01 0.02 0.04 0.06 0.07 0.09 0.12 0.13 0.11 0.08 0.07 0.07 0.07 0.10 0.10 0.09 0.06
0.10 0.05 0.06 0.09 0.09 0.09 0.09 0.10 0.10 0.05 0.03 0.04 0.08 0.09 0.11 0.09 0.09 0.08 0.05 0.03 0.03 0.03 0.02 0.01 0.01 0.00 0.01 0.00 0.00 0.00 0.00 0.00 0.00 0.01 0.01 0.04 0.02 0.00 0.00 0.00 0.01 0.03 0.05 0.07 0.10 0.12 0.11 0.09 0.07 0.07 0.08 0.11 0.09 0.07
0.04 0.07 0.12 0.10 0.09 0.09 0.07 0.03 0.05 0.03 0.03 0.04 0.05 0.05 0.04 0.04 0.05 0.06 0.04 0.02 0.01 0.01 0.01 0.00 0.01 0.01 0.00 0.00 0.00 0.00 0.00 0.00 0.00 0.00 0.00 0.00 0.00 0.00 0.00 0.00 0.00 0.00 0.02 0.04 0.06 0.09 0.11 0.14 0.15 0.15 0.14 0.11 0.08 0.07
0.05 0.08 0.12 0.11 0.10 0.08 0.05 0.03 0.02 0.01 0.02 0.02 0.02 0.03 0.02 0.03 0.04 0.03 0.03 0.04 0.03 0.01 0.00 0.00 0.00 0.00 0.00 0.00 0.01 0.01 0.01 0.00 0.00 0.00 0.00 0.00 0.00 0.00 0.00 0.00 0.00 0.00 0.00 0.00 0.03 0.06 0.12 0.15 0.16 0.16 0.17 0.13 0.08 0.07
0.06 0.11 0.11 0.08 0.06 0.05 0.04 0.06 0.06 0.05 0.02 0.03 0.03 0.02 0.01 0.02 0.02 0.02 0.04 0.03 0.01 0.01 0.00 0.00 0.00 0.01 0.00 0.00 0.00 0.00 0.00 0.00 0.00 0.00 0.00 0.00 0.00 0.00 0.00 0.00 0.00 0.00 0.00 0.00 0.01 0.02 0.04 0.10 0.14 0.16 0.18 0.21 0.18 0.14
0.10 0.09 0.08 0.07 0.05 0.06 0.06 0.08 0.05 0.04 0.03 0.04 0.02 0.01 0.01 0.02 0.04 0.04 0.03 0.04 0.03 0.03 0.01 0.02 0.01 0.00 0.00 0.00 0.00 0.00 0.00 0.00 0.00 0.00 0.00 0.00 0.00 0.00 0.00 0.00 0.00 0.00 0.00 0.00 0.00 0.01 0.01 0.03 0.09 0.17 0.20 0.23 0.28 0.30

GFSWCAN_prec_precacc24_261.txt.gz
Total_Precipitation_Accumulation
0.02 0.02 0.02 0.03 0.04 0.04 0.03 0.03 0.03 0.04 0.04 0.04 0.03 0.03 0.04 0.07 0.12 0.16 0.10 0.08 0.23 0.32 0.08 0.00 0.01 0.02 0.03 0.07 0.10 0.04 0.14 0.07 0.12 0.23 0.16 0.16 0.15 0.22 0.06 0.01 0.02 0.05 0.20 0.25 0.20 0.20 0.10 0.03 0.01 0.05 0.10 0.04 0.03 0.03
0.03 0.03 0.02 0.03 0.04 0.03 0.02 0.03 0.03 0.03 0.02 0.03 0.04 0.04 0.06 0.07 0.09 0.14 0.10 0.06 0.12 0.32 0.11 0.00 0.00 0.01 0.01 0.01 0.07 0.16 0.17 0.08 0.31 0.37 0.33 0.37 0.27 0.20 0.13 0.15 0.10 0.17 0.29 0.28 0.24 0.12 0.02 0.03 0.01 0.01 0.03 0.01 0.01 0.05
0.03 0.03 0.03 0.03 0.03 0.02 0.02 0.01 0.03 0.02 0.03 0.03 0.04 0.05 0.06 0.07 0.07 0.14 0.10 0.08 0.18 0.26 0.06 0.01 0.00 0.00 0.00 0.00 0.01 0.30 0.09 0.03 0.04 0.07 0.25 0.23 0.15 0.05 0.05 0.04 0.05 0.06 0.15 0.39 0.25 0.09 0.09 0.08 0.02 0.00 0.01 0.00 0.00 0.03
0.03 0.03 0.03 0.03 0.01 0.03 0.04 0.03 0.04 0.04 0.04 0.03 0.03 0.04 0.04 0.06 0.07 0.12 0.09 0.08 0.18 0.27 0.16 0.00 0.00 0.00 0.00 0.01 0.02 0.04 0.02 0.06 0.13 0.17 0.58 0.45 0.21 0.07 0.05 0.03 0.02 0.02 0.03 0.03 0.04 0.01 0.04 0.04 0.03 0.00 0.00 0.00 0.00 0.00
0.02 0.03 0.03 0.04 0.04 0.04 0.03 0.02 0.02 0.02 0.02 0.03 0.03 0.04 0.05 0.06 0.08 0.09 0.08 0.06 0.06 0.23 0.15 0.02 0.00 0.00 0.00 0.02 0.04 0.08 0.09 0.11 0.22 0.49 0.48 0.18 0.02 0.09 0.05 0.03 0.01 0.00 0.01 0.03 0.02 0.03 0.06 0.02 0.01 0.00 0.00 0.01 0.00 0.00
0.02 0.02 0.02 0.02 0.03 0.03 0.04 0.04 0.04 0.04 0.04 0.03 0.03 0.03 0.04 0.06 0.08 0.10 0.06 0.04 0.11 0.31 0.73 0.15 0.00 0.00 0.01 0.01 0.01 0.02 0.05 0.09 0.25 0.43 0.29 0.09 0.02 0.21 0.24 0.04 0.00 0.00 0.00 0.00 0.01 0.00 0.00 0.00 0.01 0.00 0.00 0.00 0.00 0.00
0.02 0.01 0.01 0.01 0.02 0.02 0.03 0.03 0.03 0.04 0.04 0.05 0.04 0.04 0.06 0.13 0.10 0.08 0.03 0.11 0.19 0.38 0.58 0.17 0.03 0.03 0.03 0.00 0.00 0.01 0.01 0.05 0.10 0.24 0.16 0.05 0.04 0.33 0.30 0.03 0.00 0.00 0.00 0.00 0.01 0.00 0.00 0.00 0.01 0.00 0.00 0.00 0.00 0.00
0.02 0.02 0.02 0.01 0.01 0.01 0.01 0.01 0.01 0.02 0.02 0.03 0.03 0.04 0.07 0.16 0.19 0.18 0.02 0.00 0.06 0.26 0.31 0.16 0.04 0.08 0.01 0.01 0.02 0.02 0.05 0.16 0.20 0.14 0.08 0.04 0.09 0.25 0.21 0.00 0.00 0.03 0.04 0.03 0.02 0.00 0.01 0.01 0.00 0.00 0.00 0.00 0.00 0.00
0.01 0.02 0.02 0.03 0.03 0.01 0.01 0.01 0.01 0.01 0.02 0.03 0.04 0.05 0.07 0.10 0.10 0.04 0.01 0.04 0.11 0.19 0.28 0.15 0.05 0.08 0.06 0.08 0.12 0.19 0.21 0.29 0.20 0.20 0.04 0.08 0.11 0.15 0.02 0.03 0.07 0.07 0.05 0.03 0.01 0.04 0.07 0.06 0.02 0.00 0.00 0.00 0.00 0.00
0.02 0.02 0.02 0.02 0.02 0.02 0.01 0.01 0.01 0.01 0.03 0.04 0.04 0.05 0.07 0.06 0.03 0.04 0.16 0.42 0.71 0.58 0.38 0.10 0.01 0.04 0.10 0.17 0.30 0.39 0.42 0.24 0.22 0.08 0.05 0.11 0.02 0.01 0.03 0.05 0.03 0.02 0.03 0.02 0.01 0.02 0.01 0.00 0.00 0.00 0.00 0.00 0.00 0.00
0.02 0.02 0.02 0.02 0.03 0.03 0.02 0.02 0.02 0.02 0.01 0.04 0.12 0.12 0.04 0.05 0.15 0.18 0.25 0.31 0.21 0.25 0.12 0.02 0.00 0.01 0.04 0.07 0.10 0.11 0.12 0.12 0.15 0.07 0.13 0.14 0.12 0.25 0.27 0.21 0.13 0.07 0.01 0.00 0.00 0.00 0.00 0.00 0.00 0.00 0.00 0.00 0.00 0.00
0.03 0.03 0.04 0.04 0.03 0.03 0.03 0.02 0.04 0.04 0.06 0.19 0.17 0.11 0.06 0.11 0.26 0.22 0.15 0.11 0.09 0.04 0.07 0.05 0.07 0.10 0.13 0.14 0.20 0.16 0.12 0.10 0.08 0.14 0.21 0.09 0.13 0.02 0.00 0.00 0.00 0.00 0.00 0.00 0.00 0.00 0.00 0.00 0.00 0.00 0.01 0.00 0.00 0.00
0.03 0.03 0.04 0.04 0.04 0.04 0.05 0.04 0.06 0.06 0.06 0.06 0.11 0.12 0.11 0.09 0.18 0.17 0.05 0.03 0.04 0.05 0.10 0.13 0.16 0.16 0.17 0.25 0.45 0.39 0.37 0.16 0.14 0.17 0.10 0.16 0.10 0.02 0.00 0.00 0.00 0.00 0.00 0.00 0.00 0.00 0.00 0.00 0.00 0.01 0.02 0.01 0.01 0.01
0.03 0.04 0.04 0.04 0.04 0.04 0.06 0.06 0.09 0.15 0.15 0.14 0.15 0.13 0.06 0.06 0.03 0.01 0.00 0.03 0.09 0.11 0.15 0.24 0.31 0.32 0.28 0.38 0.29 0.29 0.19 0.22 0.19 0.10 0.12 0.15 0.05 0.02 0.00 0.00 0.00 0.00 0.00 0.00 0.00 0.00 0.00 0.00 0.00 0.01 0.03 0.04 0.05 0.04
0.03 0.03 0.03 0.03 0.05 0.05 0.05 0.06 0.10 0.27 0.31 0.18 0.10 0.06 0.01 0.00 0.00 0.02 0.02 0.03 0.08 0.10 0.11 0.14 0.17 0.27 0.31 0.36 0.15 0.12 0.15 0.12 0.10 0.12 0.13 0.07 0.01 0.03 0.00 0.00 0.00 0.00 0.00 0.00 0.00 0.01 0.01 0.01 0.04 0.05 0.07 0.08 0.07 0.05
0.04 0.03 0.01 0.01 0.02 0.04 0.05 0.07 0.19 0.45 0.51 0.18 0.12 0.04 0.01 0.02 0.02 0.04 0.04 0.05 0.08 0.10 0.08 0.11 0.12 0.15 0.16 0.18 0.22 0.14 0.09 0.08 0.11 0.08 0.04 0.01 0.00 0.01 0.00 0.00 0.00 0.00 0.01 0.00 0.01 0.01 0.01 0.04 0.08 0.12 0.12 0.12 0.10 0.08
0.11 0.07 0.02 0.04 0.04 0.05 0.07 0.16 0.29 0.73 0.54 0.24 0.06 0.01 0.02 0.03 0.03 0.06 0.09 0.11 0.12 0.14 0.20 0.27 0.33 0.16 0.13 0.13 0.11 0.11 0.12 0.12 0.07 0.03 0.01 0.00 0.01 0.02 0.01 0.00 0.00 0.01 0.01 0.01 0.01 0.01 0.02 0.04 0.08 0.09 0.08 0.07 0.05 0.06
0.11 0.03 0.03 0.03 0.06 0.13 0.16 0.28 0.31 0.24 0.20 0.11 0.09 0.06 0.06 0.06 0.06 0.05 0.04 0.06 0.09 0.12 0.16 0.26 0.25 0.16 0.17 0.13 0.15 0.09 0.08 0.05 0.04 0.03 0.02 0.01 0.03 0.02 0.00 0.00 0.00 0.01 0.01 0.02 0.03 0.03 0.04 0.04 0.04 0.05 0.07 0.08 0.05 0.06
0.11 0.08 0.04 0.06 0.16 0.31 0.24 0.22 0.22 0.17 0.02 0.01 0.01 0.01 0.04 0.05 0.05 0.04 0.04 0.05 0.08 0.10 0.20 0.23 0.21 0.09 0.07 0.05 0.03 0.01 0.01 0.02 0.01 0.00 0.01 0.02 0.02 0.00 0.00 0.00 0.00 0.01 0.01 0.03 0.04 0.05 0.08 0.09 0.09 0.08 0.11 0.13 0.12 0.13
0.12 0.13 0.11 0.14 0.35 0.60 0.34 0.11 0.14 0.11 0.03 0.01 0.01 0.02 0.03 0.04 0.03 0.04 0.03 0.03 0.07 0.10 0.16 0.16 0.07 0.04 0.03 0.02 0.02 0.02 0.01 0.01 0.00 0.00 0.00 0.00 0.00 0.00 0.00 0.01 0.01 0.01 0.02 0.02 0.03 0.03 0.04 0.03 0.01 0.00 0.03 0.10 0.15 0.16
0.11 0.05 0.13 0.24 0.49 0.53 0.31 0.14 0.12 0.04 0.02 0.02 0.01 0.03 0.05 0.05 0.06 0.05 0.04 0.03 0.08 0.10 0.07 0.02 0.02 0.00 0.00 0.00 0.00 0.00 0.00 0.00 0.00 0.01 0.01 0.01 0.00 0.00 0.00 0.01 0.01 0.02 0.01 0.01 0.02 0.04 0.02 0.02 0.01 0.01 0.01 0.02 0.08 0.14
0.09 0.11 0.17 0.25 0.44 0.38 0.29 0.04 0.03 0.05 0.08 0.05 0.05 0.07 0.07 0.08 0.08 0.07 0.07 0.11 0.08 0.02 0.01 0.01 0.01 0.01 0.01 0.01 0.01 0.00 0.00 0.00 0.00 0.01 0.00 0.00 0.00 0.01 0.03 0.04 0.04 0.01 0.01 0.02 0.03 0.07 0.04 0.02 0.01 0.01 0.01 0.01 0.01 0.02
0.20 0.25 0.33 0.26 0.35 0.29 0.11 0.03 0.04 0.04 0.05 0.04 0.03 0.05 0.06 0.07 0.07 0.08 0.13 0.10 0.05 0.01 0.00 0.00 0.01 0.00 0.01 0.01 0.01 0.01 0.01 0.01 0.03 0.03 0.02 0.02 0.02 0.03 0.04 0.10 0.03 0.02 0.02 0.02 0.04 0.05 0.05 0.03 0.01 0.01 0.01 0.01 0.01 0.00
0.37 0.46 0.42 0.30 0.18 0.10 0.07 0.08 0.09 0.10 0.10 0.08 0.08 0.07 0.07 0.10 0.06 0.07 0.04 0.02 0.01 0.00 0.00 0.00 0.00 0.02 0.03 0.03 0.04 0.04 0.04 0.05 0.07 0.07 0.05 0.05 0.04 0.03 0.05 0.09 0.02 0.01 0.01 0.03 0.03 0.04 0.05 0.05 0.03 0.01 0.01 0.01 0.01 0.01
0.73 0.43 0.23 0.21 0.17 0.11 0.07 0.04 0.04 0.06 0.08 0.07 0.12 0.15 0.11 0.07 0.13 0.13 0.05 0.02 0.00 0.01 0.02 0.03 0.03 0.03 0.06 0.05 0.04 0.03 0.03 0.04 0.06 0.06 0.04 0.03 0.02 0.02 0.01 0.02 0.03 0.01 0.00 0.01 0.02 0.03 0.04 0.05 0.06 0.04 0.02 0.01 0.01 0.02
0.41 0.14 0.14 0.07 0.06 0.06 0.07 0.06 0.04 0.04 0.06 0.07 0.09 0.10 0.11 0.15 0.14 0.10 0.05 0.02 0.02 0.03 0.02 0.02 0.02 0.02 0.04 0.04 0.06 0.04 0.03 0.03 0.03 0.05 0.03 0.02 0.02 0.03 0.02 0.01 0.01 0.01 0.01 0.03 0.04 0.03 0.03 0.05 0.06 0.06 0.06 0.02 0.01 0.03
0.24 0.10 0.05 0.02 0.03 0.05 0.07 0.08 0.08 0.10 0.10 0.08 0.08 0.05 0.08 0.12 0.10 0.08 0.04 0.05 0.04 0.02 0.01 0.01 0.02 0.06 0.07 0.06 0.05 0.04 0.04 0.04 0.05 0.05 0.03 0.02 0.01 0.00 0.00 0.01 0.01 0.01 0.01 0.03 0.04 0.04 0.05 0.04 0.05 0.06 0.08 0.06 0.03 0.03
0.14 0.06 0.04 0.03 0.04 0.05 0.07 0.08 0.13 0.12 0.11 0.12 0.19 0.19 0.18 0.12 0.08 0.06 0.07 0.06 0.03 0.02 0.01 0.01 0.02 0.03 0.04 0.06 0.06 0.05 0.04 0.02 0.01 0.01 0.02 0.06 0.02 0.00 0.00 0.00 0.00 0.00 0.01 0.02 0.03 0.04 0.05 0.04 0.03 0.05 0.07 0.08 0.07 0.04
0.09 0.05 0.06 0.08 0.07 0.09 0.11 0.13 0.12 0.07 0.05 0.06 0.11 0.11 0.12 0.10 0.09 0.08 0.05 0.03 0.03 0.03 0.03 0.02 0.03 0.03 0.03 0.02 0.01 0.01 0.01 0.00 0.01 0.01 0.01 0.04 0.02 0.00 0.00 0.00 0.00 0.00 0.00 0.00 0.01 0.03 0.04 0.04 0.03 0.04 0.05 0.09 0.08 0.06
0.03 0.07 0.12 0.09 0.08 0.08 0.07 0.04 0.06 0.04 0.05 0.06 0.08 0.07 0.05 0.04 0.05 0.06 0.04 0.02 0.02 0.01 0.01 0.00 0.02 0.03 0.03 0.02 0.01 0.01 0.01 0.01 0.01 0.01 0.01 0.01 0.01 0.01 0.00 0.00 0.00 0.00 0.00 0.00 0.00 0.01 0.01 0.03 0.05 0.06 0.07 0.08 0.07 0.05
0.04 0.08 0.12 0.11 0.09 0.07 0.05 0.04 0.03 0.02 0.03 0.03 0.03 0.04 0.03 0.02 0.02 0.02 0.02 0.03 0.02 0.01 0.00 0.01 0.01 0.01 0.01 0.01 0.01 0.01 0.02 0.01 0.00 0.00 0.00 0.00 0.00 0.00 0.00 0.00 0.00 0.00 0.00 0.00 0.01 0.01 0.01 0.03 0.05 0.06 0.09 0.10 0.07 0.06
0.05 0.10 0.10 0.07 0.05 0.03 0.04 0.07 0.07 0.06 0.04 0.04 0.03 0.02 0.02 0.01 0.01 0.01 0.03 0.02 0.01 0.01 0.00 0.00 0.01 0.02 0.01 0.01 0.00 0.00 0.00 0.00 0.00 0.00 0.00 0.00 0.00 0.00 0.00 0.00 0.00 0.00 0.00 0.00 0.00 0.00 0.00 0.01 0.03 0.04 0.05 0.09 0.12 0.10
0.09 0.08 0.08 0.10 0.09 0.07 0.07 0.09 0.07 0.06 0.04 0.05 0.02 0.02 0.02 0.03 0.04 0.03 0.03 0.03 0.02 0.02 0.01 0.02 0.03 0.01 0.00 0.00 0.00 0.00 0.00 0.00 0.00 0.00 0.00 0.00 0.00 0.00 0.00 0.00 0.00 0.00 0.00 0.00 0.00 0.00 0.00 0.00 0.01 0.03 0.04 0.06 0.14 0.19

GFSWCAN_prec_precacc24_264.txt.gz
Total_Precipitation_Accumulation
0.02 0.02 0.02 0.02 0.03 0.04 0.03 0.03 0.03 0.04 0.04 0.03 0.02 0.03 0.04 0.06 0.11 0.15 0.12 0.07 0.17 0.24 0.05 0.00 0.00 0.01 0.02 0.05 0.08 0.03 0.06 0.04 0.07 0.13 0.12 0.13 0.12 0.20 0.05 0.01 0.00 0.02 0.19 0.27 0.24 0.21 0.10 0.04 0.01 0.06 0.11 0.05 0.03 0.03
0.02 0.02 0.02 0.02 0.04 0.03 0.02 0.03 0.02 0.03 0.02 0.02 0.03 0.04 0.05 0.06 0.10 0.16 0.12 0.09 0.12 0.28 0.09 0.00 0.00 0.00 0.00 0.01 0.05 0.13 0.08 0.05 0.12 0.21 0.22 0.23 0.17 0.12 0.07 0.10 0.08 0.14 0.27 0.29 0.27 0.13 0.03 0.03 0.01 0.01 0.03 0.01 0.01 0.05
0.02 0.03 0.02 0.03 0.03 0.02 0.01 0.01 0.02 0.02 0.03 0.03 0.03 0.05 0.05 0.06 0.08 0.13 0.09 0.10 0.16 0.21 0.04 0.01 0.00 0.00 0.00 0.00 0.00 0.12 0.05 0.02 0.02 0.03 0.18 0.17 0.12 0.03 0.03 0.02 0.02 0.06 0.14 0.36 0.23 0.08 0.09 0.08 0.02 0.00 0.01 0.00 0.00 0.03
0.03 0.02 0.02 0.02 0.01 0.02 0.03 0.03 0.03 0.04 0.03 0.02 0.02 0.04 0.04 0.05 0.06 0.11 0.09 0.09 0.16 0.23 0.14 0.00 0.00 0.00 0.00 0.00 0.00 0.02 0.01 0.05 0.09 0.13 0.45 0.34 0.18 0.06 0.03 0.01 0.01 0.00 0.01 0.01 0.01 0.01 0.03 0.04 0.03 0.02 0.00 0.00 0.00 0.00
0.02 0.02 0.03 0.03 0.04 0.03 0.03 0.02 0.02 0.02 0.01 0.01 0.02 0.03 0.04 0.05 0.07 0.08 0.08 0.08 0.07 0.18 0.14 0.02 0.00 0.00 0.00 0.00 0.00 0.02 0.05 0.08 0.20 0.42 0.41 0.15 0.02 0.07 0.04 0.02 0.00 0.00 0.00 0.00 0.01 0.02 0.04 0.02 0.01 0.00 0.00 0.01 0.00 0.00
0.01 0.01 0.02 0.02 0.03 0.03 0.03 0.03 0.03 0.04 0.03 0.02 0.02 0.03 0.04 0.06 0.07 0.08 0.05 0.04 0.06 0.20 0.48 0.09 0.00 0.00 0.00 0.00 0.00 0.02 0.03 0.07 0.26 0.41 0.24 0.07 0.01 0.15 0.17 0.02 0.00 0.00 0.00 0.00 0.00 0.00 0.00 0.00 0.01 0.00 0.00 0.00 0.00 0.00
0.01 0.01 0.01 0.01 0.01 0.02 0.02 0.03 0.03 0.04 0.04 0.05 0.04 0.04 0.05 0.12 0.09 0.06 0.03 0.07 0.11 0.30 0.39 0.10 0.00 0.01 0.03 0.00 0.00 0.01 0.02 0.07 0.11 0.22 0.14 0.04 0.03 0.26 0.25 0.03 0.00 0.00 0.00 0.00 0.01 0.00 0.00 0.00 0.01 0.00 0.00 0.00 0.00 0.00
0.01 0.01 0.01 0.01 0.01 0.01 0.01 0.01 0.01 0.02 0.02 0.02 0.02 0.03 0.07 0.15 0.18 0.17 0.03 0.00 0.04 0.19 0.21 0.09 0.01 0.03 0.01 0.01 0.02 0.02 0.06 0.16 0.19 0.14 0.06 0.03 0.05 0.17 0.16 0.00 0.00 0.03 0.04 0.03 0.02 0.00 0.01 0.01 0.00 0.00 0.00 0.00 0.00 0.00
0.01 0.01 0.01 0.02 0.02 0.01 0.01 0.01 0.01 0.01 0.02 0.02 0.04 0.05 0.08 0.10 0.12 0.05 0.02 0.03 0.09 0.18 0.21 0.13 0.03 0.03 0.04 0.08 0.13 0.18 0.20 0.28 0.18 0.18 0.03 0.05 0.08 0.14 0.02 0.03 0.07 0.07 0.05 0.03 0.01 0.04 0.07 0.06 0.02 0.00 0.00 0.00 0.00 0.00
0.02 0.02 0.02 0.02 0.01 0.02 0.01 0.01 0.01 0.01 0.02 0.04 0.04 0.06 0.07 0.06 0.04 0.04 0.15 0.42 0.72 0.58 0.35 0.10 0.00 0.01 0.04 0.10 0.26 0.37 0.41 0.23 0.21 0.07 0.04 0.11 0.02 0.01 0.03 0.04 0.03 0.02 0.03 0.02 0.01 0.02 0.01 0.00 0.00 0.00 0.00 0.00 0.00 0.00
0.02 0.02 0.02 0.02 0.02 0.02 0.01 0.01 0.02 0.01 0.01 0.05 0.11 0.12 0.07 0.05 0.16 0.18 0.24 0.32 0.21 0.24 0.11 0.02 0.00 0.00 0.00 0.01 0.06 0.14 0.14 0.10 0.14 0.04 0.10 0.12 0.09 0.19 0.26 0.21 0.13 0.07 0.01 0.00 0.00 0.00 0.00 0.00 0.00 0.00 0.00 0.00 0.00 0.00
0.03 0.03 0.04 0.04 0.03 0.03 0.02 0.02 0.03 0.03 0.06 0.19 0.18 0.13 0.09 0.13 0.27 0.23 0.16 0.11 0.07 0.03 0.02 0.01 0.02 0.06 0.07 0.11 0.19 0.17 0.12 0.08 0.06 0.12 0.22 0.09 0.08 0.02 0.01 0.02 0.00 0.00 0.00 0.00 0.00 0.00 0.00 0.00 0.00 0.00 0.00 0.00 0.00 0.00
0.03 0.03 0.04 0.04 0.04 0.04 0.05 0.04 0.06 0.07 0.06 0.06 0.10 0.12 0.12 0.10 0.18 0.18 0.06 0.03 0.02 0.02 0.05 0.08 0.13 0.13 0.15 0.23 0.45 0.39 0.38 0.16 0.12 0.18 0.10 0.07 0.03 0.02 0.03 0.01 0.00 0.00 0.00 0.00 0.00 0.00 0.00 0.00 0.00 0.00 0.00 0.00 0.00 0.00
0.03 0.04 0.04 0.04 0.04 0.04 0.06 0.05 0.09 0.15 0.16 0.15 0.16 0.13 0.06 0.07 0.03 0.01 0.00 0.01 0.04 0.08 0.14 0.23 0.34 0.33 0.26 0.34 0.27 0.30 0.19 0.22 0.20 0.11 0.06 0.12 0.07 0.05 0.05 0.02 0.02 0.00 0.00 0.00 0.00 0.00 0.00 0.00 0.00 0.00 0.00 0.00 0.02 0.02
0.03 0.03 0.02 0.03 0.04 0.04 0.04 0.05 0.10 0.30 0.34 0.20 0.13 0.08 0.02 0.00 0.01 0.02 0.02 0.02 0.05 0.08 0.11 0.18 0.25 0.39 0.39 0.42 0.16 0.12 0.15 0.14 0.09 0.08 0.14 0.11 0.02 0.04 0.04 0.02 0.01 0.00 0.00 0.00 0.00 0.00 0.00 0.00 0.00 0.00 0.01 0.02 0.03 0.02
0.04 0.04 0.01 0.00 0.02 0.03 0.04 0.05 0.19 0.46 0.53 0.22 0.14 0.05 0.02 0.03 0.02 0.03 0.04 0.04 0.09 0.11 0.10 0.14 0.16 0.16 0.18 0.24 0.28 0.19 0.13 0.08 0.16 0.17 0.14 0.07 0.01 0.02 0.03 0.02 0.00 0.00 0.00 0.00 0.00 0.00 0.00 0.01 0.01 0.02 0.02 0.02 0.02 0.02
0.11 0.09 0.02 0.04 0.03 0.05 0.07 0.13 0.30 0.73 0.56 0.27 0.07 0.01 0.02 0.03 0.04 0.07 0.09 0.11 0.10 0.14 0.21 0.27 0.36 0.18 0.12 0.12 0.09 0.10 0.14 0.18 0.14 0.09 0.06 0.04 0.03 0.02 0.02 0.01 0.01 0.00 0.00 0.00 0.00 0.00 0.01 0.01 0.01 0.00 0.01 0.01 0.01 0.01
0.11 0.05 0.03 0.03 0.06 0.13 0.17 0.25 0.29 0.24 0.20 0.11 0.10 0.06 0.07 0.06 0.07 0.06 0.06 0.06 0.11 0.16 0.17 0.25 0.23 0.15 0.17 0.12 0.10 0.10 0.13 0.13 0.11 0.05 0.02 0.03 0.05 0.04 0.01 0.01 0.01 0.00 0.00 0.00 0.00 0.01 0.01 0.01 0.01 0.01 0.02 0.01 0.01 0.00
0.11 0.09 0.04 0.06 0.15 0.25 0.20 0.20 0.22 0.17 0.02 0.01 0.01 0.02 0.04 0.04 0.04 0.04 0.04 0.04 0.06 0.10 0.20 0.22 0.21 0.08 0.03 0.05 0.05 0.03 0.03 0.04 0.05 0.04 0.01 0.02 0.02 0.01 0.01 0.00 0.00 0.00 0.00 0.01 0.01 0.02 0.03 0.04 0.03 0.02 0.03 0.03 0.03 0.03
0.11 0.12 0.11 0.14 0.33 0.50 0.30 0.10 0.13 0.11 0.03 0.01 0.02 0.02 0.04 0.03 0.02 0.04 0.03 0.03 0.06 0.10 0.16 0.16 0.06 0.03 0.03 0.02 0.03 0.02 0.01 0.01 0.00 0.00 0.00 0.00 0.00 0.00 0.00 0.01 0.01 0.02 0.02 0.01 0.01 0.01 0.01 0.01 0.00 0.00 0.01 0.04 0.05 0.06
0.11 0.06 0.13 0.22 0.46 0.48 0.26 0.11 0.12 0.05 0.03 0.02 0.01 0.02 0.03 0.03 0.05 0.06 0.05 0.04 0.09 0.10 0.07 0.03 0.03 0.01 0.01 0.00 0.00 0.00 0.00 0.00 0.00 0.01 0.00 0.00 0.00 0.00 0.00 0.00 0.01 0.03 0.02 0.02 0.01 0.01 0.01 0.02 0.01 0.01 0.01 0.02 0.04 0.08
0.11 0.11 0.16 0.23 0.37 0.34 0.26 0.04 0.02 0.03 0.06 0.03 0.03 0.06 0.07 0.07 0.07 0.08 0.08 0.13 0.10 0.04 0.03 0.03 0.02 0.01 0.01 0.01 0.00 0.00 0.00 0.00 0.00 0.01 0.00 0.00 0.00 0.01 0.02 0.03 0.04 0.02 0.01 0.01 0.02 0.05 0.03 0.02 0.01 0.01 0.01 0.01 0.01 0.01
0.21 0.25 0.30 0.23 0.29 0.24 0.09 0.02 0.03 0.02 0.04 0.04 0.02 0.04 0.04 0.04 0.04 0.07 0.14 0.10 0.04 0.02 0.01 0.01 0.01 0.00 0.01 0.01 0.01 0.01 0.01 0.01 0.02 0.02 0.02 0.02 0.01 0.02 0.03 0.08 0.03 0.02 0.03 0.02 0.03 0.03 0.03 0.02 0.01 0.01 0.01 0.00 0.01 0.00
0.35 0.39 0.36 0.25 0.14 0.06 0.05 0.07 0.08 0.08 0.08 0.07 0.06 0.04 0.04 0.07 0.07 0.09 0.05 0.02 0.02 0.01 0.01 0.00 0.01 0.02 0.04 0.04 0.05 0.03 0.04 0.05 0.07 0.07 0.06 0.05 0.05 0.04 0.05 0.06 0.01 0.00 0.01 0.02 0.01 0.01 0.02 0.02 0.02 0.01 0.01 0.01 0.01 0.01
0.66 0.39 0.19 0.16 0.13 0.08 0.04 0.03 0.03 0.05 0.07 0.06 0.09 0.11 0.10 0.09 0.15 0.15 0.06 0.03 0.02 0.02 0.03 0.04 0.04 0.04 0.06 0.05 0.04 0.03 0.04 0.06 0.08 0.08 0.05 0.05 0.04 0.04 0.02 0.01 0.02 0.00 0.00 0.01 0.01 0.01 0.01 0.02 0.03 0.03 0.01 0.01 0.01 0.02
0.38 0.12 0.10 0.04 0.04 0.03 0.04 0.04 0.04 0.04 0.05 0.05 0.05 0.06 0.11 0.16 0.15 0.11 0.05 0.02 0.03 0.03 0.04 0.05 0.03 0.02 0.04 0.04 0.06 0.06 0.05 0.03 0.03 0.05 0.04 0.03 0.03 0.05 0.05 0.03 0.02 0.02 0.00 0.01 0.02 0.02 0.01 0.01 0.02 0.03 0.03 0.01 0.01 0.02
0.20 0.07 0.03 0.00 0.01 0.03 0.05 0.06 0.07 0.09 0.09 0.06 0.06 0.07 0.10 0.14 0.11 0.07 0.04 0.05 0.05 0.05 0.03 0.01 0.02 0.06 0.06 0.06 0.07 0.06 0.04 0.04 0.07 0.10 0.08 0.04 0.02 0.02 0.03 0.03 0.02 0.02 0.00 0.00 0.01 0.02 0.03 0.02 0.02 0.02 0.05 0.04 0.02 0.02
0.10 0.03 0.02 0.02 0.03 0.03 0.05 0.06 0.11 0.11 0.10 0.11 0.19 0.19 0.19 0.13 0.08 0.06 0.08 0.07 0.04 0.04 0.02 0.02 0.02 0.03 0.04 0.07 0.08 0.07 0.05 0.04 0.05 0.04 0.04 0.05 0.01 0.00 0.00 0.00 0.00 0.00 0.00 0.00 0.00 0.01 0.02 0.02 0.02 0.02 0.03 0.05 0.05 0.02
0.02 0.02 0.03 0.05 0.05 0.08 0.10 0.11 0.09 0.06 0.04 0.07 0.11 0.12 0.13 0.11 0.10 0.09 0.05 0.04 0.04 0.05 0.04 0.03 0.03 0.03 0.03 0.03 0.03 0.02 0.02 0.02 0.02 0.02 0.02 0.04 0.04 0.01 0.00 0.00 0.00 0.00 0.00 0.00 0.00 0.00 0.01 0.01 0.02 0.03 0.03 0.05 0.06 0.04
0.00 0.05 0.12 0.09 0.08 0.06 0.05 0.04 0.05 0.05 0.06 0.07 0.09 0.08 0.06 0.05 0.05 0.06 0.05 0.03 0.03 0.02 0.01 0.01 0.02 0.03 0.03 0.03 0.03 0.03 0.02 0.02 0.01 0.02 0.03 0.03 0.04 0.02 0.00 0.00 0.00 0.00 0.00 0.00 0.00 0.00 0.00 0.00 0.01 0.02 0.03 0.04 0.05 0.04
0.03 0.07 0.12 0.11 0.09 0.06 0.05 0.05 0.05 0.04 0.04 0.04 0.04 0.05 0.03 0.02 0.02 0.02 0.01 0.02 0.02 0.01 0.01 0.01 0.01 0.01 0.01 0.02 0.03 0.04 0.03 0.01 0.00 0.00 0.00 0.00 0.01 0.00 0.00 0.00 0.00 0.00 0.00 0.00 0.00 0.00 0.00 0.00 0.01 0.02 0.03 0.04 0.06 0.06
0.04 0.10 0.11 0.08 0.05 0.03 0.05 0.08 0.08 0.08 0.06 0.07 0.06 0.04 0.03 0.03 0.02 0.00 0.03 0.02 0.01 0.01 0.01 0.00 0.01 0.02 0.01 0.02 0.03 0.01 0.02 0.01 0.00 0.00 0.00 0.00 0.00 0.00 0.00 0.00 0.00 0.00 0.00 0.00 0.00 0.00 0.00 0.00 0.00 0.01 0.02 0.03 0.06 0.08
0.09 0.08 0.09 0.11 0.09 0.07 0.08 0.12 0.09 0.07 0.05 0.06 0.04 0.03 0.03 0.03 0.03 0.02 0.03 0.03 0.02 0.02 0.02 0.02 0.03 0.02 0.01 0.01 0.00 0.00 0.00 0.00 0.00 0.00 0.00 0.00 0.00 0.00 0.00 0.00 0.00 0.00 0.00 0.00 0.00 0.00 0.00 0.00 0.00 0.00 0.01 0.02 0.04 0.10